GEFSSGP_con_prob3kmehi_000.txt.gz
EHI
0 0 0 0 0 0 0 0 0 0 0 0 0 0 0 0 0 0 0 0 0 0 0 0 0 0 0 1 5 20 32 24 11 6 2 0 0 0 0 0 0 0 0 0 0 0 0 0 0
0 0 0 0 0 0 0 0 0 0 0 0 0 0 0 0 0 0 0 0 0 0 0 0 0 0 0 2 7 22 30 19 6 2 1 0 0 0 0 0 0 0 0 0 0 0 0 0 0
0 0 0 0 0 0 0 0 0 0 0 0 0 0 0 0 0 0 0 0 0 0 0 0 0 0 0 1 7 17 19 10 2 0 0 0 0 0 0 0 0 0 0 0 0 0 0 0 0
0 0 0 0 0 0 0 0 0 0 0 0 0 0 0 0 0 0 0 0 0 0 0 0 0 0 0 0 3 7 8 3 0 0 0 0 0 0 0 0 0 0 0 0 0 0 0 0 0
0 0 0 0 0 0 0 0 0 0 0 0 0 0 0 0 0 0 0 0 0 0 0 0 0 0 0 0 0 2 4 3 0 0 0 0 0 0 0 0 0 0 0 0 0 0 0 0 0
0 0 0 0 0 0 0 0 0 0 0 0 0 0 1 2 2 1 0 0 0 1 0 0 0 0 0 0 0 1 4 4 1 0 0 0 0 0 0 0 0 0 0 0 0 0 0 0 0
0 0 0 0 0 0 0 0 0 0 0 0 0 0 4 13 17 10 2 0 0 0 0 0 0 0 0 0 0 1 3 3 1 0 0 0 0 0 0 0 0 0 0 0 0 0 0 0 0
0 0 0 0 0 0 0 0 0 0 0 0 0 0 14 41 54 36 15 4 1 0 0 0 0 0 0 0 0 0 1 1 0 0 0 0 0 0 0 0 0 0 0 0 0 0 0 0 0
0 0 0 0 0 0 0 0 0 0 0 0 0 1 24 67 87 73 44 19 5 1 0 0 0 0 0 0 0 0 0 0 0 0 0 0 0 0 0 1 1 0 0 0 0 0 0 0 0
0 0 0 0 0 0 0 0 0 0 0 0 0 3 31 76 99 91 67 32 9 2 0 0 0 0 0 0 0 0 0 0 0 0 0 0 0 0 0 2 2 1 0 0 0 0 0 0 0
0 0 0 0 0 0 0 0 0 0 0 0 0 5 30 64 78 73 54 26 7 1 0 0 0 0 0 0 0 0 1 0 0 0 0 0 0 0 0 1 1 0 0 0 0 0 0 0 0
0 0 0 0 0 0 0 0 0 0 0 0 0 5 20 33 37 31 21 10 2 0 0 0 0 0 0 1 1 1 2 1 0 0 0 0 0 0 0 0 0 0 0 0 0 0 0 0 0
0 0 0 0 0 0 0 0 0 0 0 0 0 3 8 9 7 7 7 5 2 0 0 0 1 0 1 2 1 1 1 0 0 0 0 0 0 0 0 0 0 0 0 0 0 0 0 0 0
0 0 0 0 0 0 0 0 0 0 0 2 11 22 28 26 23 25 29 24 13 6 2 0 0 0 0 1 1 0 0 0 0 0 1 1 1 0 0 0 0 0 0 1 1 0 0 0 0
0 0 0 0 0 0 0 0 1 2 2 12 35 60 71 70 66 67 68 59 45 36 28 20 12 6 2 0 0 0 0 0 0 0 1 2 1 0 0 0 0 0 0 1 1 0 0 0 0
0 0 0 0 0 0 0 4 10 12 13 31 60 78 83 79 72 72 74 77 79 78 72 57 36 18 10 7 4 2 1 0 1 1 3 4 2 1 1 1 0 0 0 0 0 0 0 0 0
0 0 0 0 0 0 0 8 25 30 30 47 60 58 50 39 31 32 38 55 73 80 78 65 41 24 20 19 15 11 5 1 3 9 18 20 10 3 2 2 1 0 0 1 1 1 0 0 0
0 0 0 0 0 0 0 7 25 35 33 37 37 26 15 7 3 3 8 20 35 41 41 34 23 16 20 25 30 30 21 11 13 28 44 40 18 4 4 4 2 0 1 2 2 1 1 1 1
0 0 0 0 0 0 0 3 12 17 15 13 12 7 2 1 0 0 0 3 7 9 9 7 6 6 14 29 43 49 39 25 29 45 53 39 15 3 8 13 10 4 1 1 1 1 0 0 0
0 0 0 0 0 0 0 0 1 2 1 1 2 2 2 1 0 0 0 0 0 0 0 0 0 1 11 32 52 55 41 27 29 38 38 22 7 3 11 22 21 11 3 0 0 0 0 0 0
0 0 0 0 0 0 0 0 0 0 0 0 0 0 1 1 0 0 0 0 0 0 0 0 0 0 7 23 40 41 26 13 13 17 17 11 4 3 9 17 19 13 4 0 0 0 0 0 0
0 0 0 0 0 0 0 0 0 0 0 0 0 0 0 0 0 0 0 0 0 0 0 0 0 0 2 7 14 14 9 3 2 3 5 4 2 1 3 5 6 5 2 0 0 0 0 0 0
0 0 0 0 0 0 0 0 0 0 0 0 0 0 0 0 0 0 0 0 0 0 0 0 0 0 0 0 0 0 0 0 0 0 1 1 0 0 0 0 0 0 0 0 0 0 0 0 0
0 0 0 0 0 0 0 0 0 0 0 0 0 0 0 0 0 0 0 0 0 0 0 0 0 1 0 0 0 0 0 0 0 0 0 0 0 0 0 0 0 0 0 0 0 0 0 0 0
0 0 0 0 0 0 0 0 0 0 0 0 0 0 0 0 0 0 0 0 0 0 0 0 0 0 0 0 0 0 0 0 0 0 0 0 0 0 0 0 0 0 0 0 0 0 0 0 0
0 0 0 0 0 0 0 0 0 0 0 0 0 0 0 0 0 0 0 0 0 0 0 0 0 0 0 0 0 0 0 0 0 0 0 0 0 0 0 0 0 0 0 0 0 0 0 0 0
0 0 0 0 0 0 0 0 0 0 0 0 0 0 0 0 0 0 0 0 0 0 0 0 0 0 0 0 0 0 0 0 0 0 0 0 0 0 0 0 0 0 0 0 0 0 0 0 0
0 0 0 0 0 0 0 0 0 0 0 0 0 0 0 0 0 0 0 0 0 0 0 1 0 0 0 0 0 0 1 0 0 0 0 0 0 0 0 0 0 0 0 0 0 0 0 0 0
0 0 0 0 0 0 0 0 0 0 0 0 0 0 0 0 0 0 0 0 0 0 0 0 0 0 0 0 0 0 0 0 0 0 0 0 0 0 0 0 0 0 0 0 0 0 0 0 0
0 0 0 0 0 0 0 0 0 0 0 0 0 0 0 0 0 0 0 0 0 0 0 0 0 0 0 0 0 0 0 0 0 0 0 0 0 0 0 0 0 0 0 0 0 0 0 0 0

GEFSSGP_con_prob3kmehi_006.txt.gz
EHI
0 0 0 0 1 1 1 0 0 0 0 0 0 0 0 0 0 0 0 0 0 0 3 13 17 9 2 0 0 0 0 0 0 0 0 0 0 0 0 0 0 0 0 0 0 0 0 0 0
0 0 0 0 0 0 0 0 0 0 0 0 0 0 0 0 0 0 0 0 0 0 1 9 18 14 4 0 0 0 0 0 0 0 0 0 0 0 0 0 0 0 0 0 0 0 0 0 0
0 0 0 0 0 0 0 0 0 0 0 0 0 0 0 0 0 0 1 1 0 0 0 4 13 15 6 1 0 0 0 0 0 0 1 1 0 0 0 0 0 0 0 0 0 0 0 0 0
0 0 0 0 0 0 0 0 0 0 0 0 0 0 0 0 0 1 4 5 3 0 0 2 7 9 5 1 0 0 0 0 0 0 1 1 0 0 0 0 0 0 0 0 0 0 0 0 0
0 0 0 0 0 0 0 0 0 0 0 0 0 0 1 0 0 0 8 13 8 1 1 2 4 5 3 1 0 0 0 0 0 0 1 1 0 0 0 0 0 0 0 0 0 0 0 0 0
0 0 0 0 0 0 0 0 0 0 0 0 0 1 2 1 0 0 11 21 15 7 7 3 3 4 3 1 0 0 0 0 0 0 0 0 0 0 0 0 0 0 0 0 0 0 0 0 0
0 0 0 0 0 0 0 0 0 0 0 0 0 2 4 2 0 1 11 25 28 24 16 5 1 2 3 2 1 0 0 0 0 0 0 0 0 0 0 1 1 1 1 1 1 0 0 1 1
0 0 0 0 0 0 0 0 0 0 0 0 2 10 15 8 0 0 7 26 49 51 30 8 1 2 2 2 1 0 0 0 0 0 0 0 0 0 0 1 2 2 2 3 4 4 3 4 5
0 0 0 0 0 0 0 0 0 0 0 0 7 30 40 20 2 0 3 25 62 78 52 18 4 5 3 1 1 0 0 0 0 0 0 0 0 0 2 3 5 5 7 12 16 13 9 7 8
0 0 0 0 0 0 0 0 0 0 0 0 15 50 60 31 5 1 2 26 68 92 71 32 18 18 9 4 6 4 0 1 1 1 3 3 1 0 4 13 19 19 17 19 21 18 11 6 5
0 0 0 0 0 0 0 0 0 0 0 1 19 55 66 37 9 2 8 36 75 95 80 52 44 43 21 11 18 13 6 6 7 10 14 12 6 2 9 30 46 43 31 22 20 18 11 4 2
0 0 0 0 0 0 0 0 0 0 0 1 14 45 60 39 12 6 19 50 81 93 85 75 73 69 49 38 43 40 30 29 31 35 38 31 18 8 15 45 66 61 46 41 39 32 18 8 5
0 0 0 0 0 0 0 0 0 0 0 1 9 31 47 39 23 22 37 63 85 90 88 91 93 90 83 76 78 75 69 61 58 60 60 50 34 21 30 60 76 62 49 57 66 58 41 27 21
0 0 0 0 0 0 0 0 0 0 1 6 18 36 51 54 51 54 63 78 91 90 86 93 100 100 99 98 95 92 85 71 58 62 70 68 57 50 61 80 86 68 48 54 73 76 68 57 48
0 0 0 0 0 0 0 0 0 1 6 18 37 58 76 83 84 85 88 92 94 87 81 89 97 99 100 99 94 88 79 64 55 61 76 86 85 84 90 96 97 84 67 63 74 80 78 69 58
0 0 0 0 0 0 0 0 0 2 11 26 44 67 87 96 98 98 98 96 88 80 80 86 90 93 97 97 92 84 77 70 68 74 87 96 99 100 100 100 99 96 89 82 79 79 78 70 58
0 0 0 0 0 0 0 0 1 3 12 22 34 50 66 74 80 87 90 85 71 64 70 75 73 77 87 92 91 86 83 78 75 81 91 97 99 100 100 100 100 98 94 87 82 83 87 82 75
0 0 0 0 0 0 0 0 1 3 7 13 23 35 43 45 48 55 63 63 54 49 55 60 58 62 73 82 86 89 89 84 77 79 88 94 97 98 98 97 96 93 87 81 82 88 95 96 94
0 0 0 0 0 0 0 0 0 1 3 9 21 35 42 38 29 25 29 36 38 40 46 53 57 59 62 69 76 82 86 87 86 85 88 92 94 94 93 89 84 79 74 73 80 90 97 99 99
0 0 0 0 0 0 0 0 0 1 8 20 34 47 56 51 32 14 9 13 19 26 32 43 55 59 58 58 60 65 72 79 85 88 91 92 93 90 84 76 69 66 65 68 77 87 91 92 92
0 0 0 0 0 0 0 0 1 7 24 39 43 46 51 47 29 9 2 2 4 7 12 24 44 58 58 51 40 39 48 56 62 73 83 89 90 86 76 64 58 57 61 66 74 77 75 71 68
0 0 0 0 0 0 0 0 3 18 39 40 28 23 22 19 12 4 0 0 0 0 2 12 33 50 55 47 34 25 25 26 33 47 64 77 83 78 66 54 47 46 50 58 59 54 48 41 35
0 0 0 0 0 0 0 0 4 21 33 22 8 4 2 1 0 0 0 0 0 0 1 5 15 29 41 46 46 37 22 13 15 24 39 56 67 65 52 41 35 33 34 36 32 25 20 16 11
0 0 0 0 0 0 0 0 3 11 14 8 1 0 0 0 0 0 0 0 0 0 0 1 7 20 36 48 55 50 35 20 12 11 20 37 51 47 34 24 21 20 17 14 10 6 4 3 2
0 0 0 0 0 0 0 0 1 2 3 2 1 0 0 0 0 0 0 0 0 0 0 4 14 30 39 41 43 42 34 22 13 9 16 30 38 32 19 10 8 8 6 4 2 1 0 0 0
0 0 0 0 0 0 0 0 0 0 1 1 0 0 0 0 0 0 0 0 0 1 3 11 23 30 25 21 22 22 19 14 10 11 19 27 26 18 8 3 1 1 1 1 0 0 0 0 0
0 0 0 0 0 0 0 0 0 0 0 0 0 0 0 0 0 0 0 0 0 3 9 17 21 17 8 4 6 6 6 5 5 9 15 18 14 6 2 0 0 0 0 0 0 0 0 0 0
0 0 0 0 0 0 0 0 0 0 0 0 0 0 0 0 0 0 0 0 0 4 12 16 12 6 2 1 1 1 0 1 2 3 5 6 4 1 0 0 0 0 0 0 0 0 0 0 0
0 0 0 0 0 0 0 0 0 0 0 0 0 0 0 0 0 0 0 0 0 4 10 10 5 2 1 0 0 0 0 0 0 0 0 0 0 0 0 0 0 0 0 0 0 0 0 0 0
0 0 0 0 0 0 0 0 0 0 0 0 0 0 0 0 0 0 0 0 0 3 6 5 2 1 1 1 0 0 0 0 0 0 0 0 0 0 0 0 0 0 0 0 0 0 0 0 0

GEFSSGP_con_prob3kmehi_012.txt.gz
EHI
0 0 0 0 0 0 0 0 0 0 0 0 0 0 0 0 0 0 0 0 1 4 7 19 27 18 6 1 0 0 0 0 0 0 0 0 0 0 0 0 0 0 0 0 0 0 0 0 0
0 0 0 0 0 0 0 0 0 0 0 0 0 0 0 0 0 0 0 0 3 6 8 17 26 25 18 11 3 0 0 0 0 0 0 0 0 0 0 0 0 0 0 0 0 0 0 0 0
0 0 0 0 0 0 0 0 0 0 0 0 0 0 0 0 0 0 0 1 4 7 11 26 37 40 44 35 14 2 0 0 0 0 0 0 0 0 0 0 0 0 0 0 0 0 0 0 0
0 0 0 0 0 0 0 0 0 0 0 0 0 0 0 0 0 0 0 1 4 5 17 45 60 64 73 64 31 7 1 0 0 0 0 0 0 0 0 0 0 0 0 0 0 0 0 0 0
0 0 0 0 0 0 0 0 0 0 0 0 0 0 0 0 0 0 0 1 3 8 27 61 82 86 92 83 51 20 6 1 0 0 0 0 0 0 0 0 0 0 0 0 0 0 0 0 0
0 0 0 0 0 0 0 0 0 0 0 0 0 0 0 0 0 0 0 0 3 14 38 70 90 96 99 93 74 49 30 15 5 0 0 0 0 0 0 0 0 0 0 0 0 0 0 0 0
0 0 0 0 0 0 0 0 0 0 1 1 0 0 0 0 1 1 0 0 2 13 38 64 81 89 94 96 92 83 68 46 22 6 1 0 0 0 0 0 0 0 0 0 0 0 0 0 0
0 0 0 0 0 0 0 0 0 2 5 5 2 0 0 2 5 8 6 3 1 6 21 41 54 64 72 79 87 89 80 59 33 10 1 0 0 0 0 0 0 0 0 0 0 0 0 0 0
0 0 0 0 0 0 0 0 0 6 19 25 16 4 1 7 18 29 31 20 7 1 5 15 24 31 38 46 55 58 49 35 20 7 1 0 0 0 0 0 0 0 0 0 0 0 1 1 1
0 0 0 0 0 0 0 0 0 8 26 37 25 7 2 10 27 51 63 52 27 8 2 3 6 10 14 18 20 19 14 8 4 1 0 0 0 0 0 0 0 0 0 0 1 1 1 2 1
0 0 0 0 0 0 0 0 0 4 14 20 15 4 1 6 20 44 70 76 55 25 7 2 1 2 4 5 3 1 0 0 0 0 0 0 0 0 0 0 0 0 1 1 1 1 1 1 0
0 0 0 0 0 0 0 0 0 1 2 4 3 2 1 2 7 22 50 75 73 45 19 8 5 3 1 0 0 0 0 0 0 0 0 0 0 0 0 0 0 1 2 3 3 2 1 0 0
0 0 0 0 0 0 0 0 0 6 16 22 19 12 6 4 4 10 33 67 78 59 34 27 25 14 4 2 2 1 1 0 0 1 1 1 4 6 6 4 1 1 3 4 4 2 1 0 0
0 0 0 0 0 0 0 0 3 19 46 62 56 42 31 23 18 20 36 63 78 68 53 51 51 34 15 10 12 13 12 8 5 4 4 6 14 23 25 17 8 5 6 5 4 2 0 0 0
0 0 0 0 0 0 0 1 10 37 73 91 88 80 70 59 53 51 58 70 80 79 73 70 70 56 34 24 26 27 23 16 9 6 5 8 19 32 36 27 15 11 12 11 7 3 1 0 0
0 0 0 0 0 0 1 4 17 47 80 95 97 96 93 90 87 85 84 85 88 90 87 83 81 72 50 32 26 22 16 11 6 3 3 4 10 19 23 20 15 17 22 23 17 10 6 3 1
0 0 0 0 0 0 1 4 16 39 67 84 90 94 96 98 97 96 95 96 96 96 93 85 75 61 42 23 12 6 3 2 1 0 0 0 1 4 5 8 15 26 36 38 31 23 16 8 4
0 0 0 0 0 0 0 2 8 21 45 69 85 93 97 94 87 82 84 89 94 93 85 67 45 27 16 8 3 0 0 0 0 0 0 0 0 0 3 8 21 37 48 49 44 34 22 13 8
0 0 0 0 0 0 0 0 1 8 27 56 81 96 99 90 72 57 55 64 71 70 57 35 16 4 1 1 0 0 0 0 0 0 0 0 0 1 5 13 23 35 46 50 44 34 22 13 9
0 0 0 0 0 0 0 0 0 3 16 45 77 95 95 81 54 32 24 28 36 34 24 13 5 2 1 1 1 0 0 0 0 0 0 0 1 2 7 16 24 28 33 34 29 22 15 8 5
0 0 0 0 0 0 0 0 0 2 11 39 72 87 81 60 32 13 6 7 10 10 7 6 7 7 7 5 3 1 0 0 0 0 0 0 1 2 6 14 21 21 20 17 12 9 6 2 1
0 0 0 0 0 0 0 0 0 1 10 33 56 63 53 32 14 5 2 3 4 3 3 5 9 12 11 9 6 2 0 0 0 0 0 0 0 1 3 7 11 13 11 7 3 1 1 0 0
0 0 0 0 0 0 0 0 0 0 6 20 30 30 21 11 5 2 2 4 3 2 1 2 6 9 10 9 5 1 0 0 0 0 0 0 0 0 0 1 2 4 4 2 0 0 0 0 0
0 0 0 0 0 0 0 0 0 0 2 6 10 8 4 2 1 1 2 3 2 0 0 0 2 4 5 5 3 1 0 0 0 0 0 0 0 0 0 0 0 1 1 0 0 0 0 0 0
0 0 0 0 0 0 0 0 0 0 0 1 2 1 0 0 0 0 1 1 0 0 0 0 0 1 2 2 1 0 0 0 0 0 0 0 0 0 0 0 0 0 0 0 0 0 0 0 0
0 0 0 0 0 0 0 0 0 0 0 0 0 0 0 0 0 0 0 0 0 0 0 0 0 0 0 0 0 0 0 0 0 0 0 0 0 0 0 0 0 0 0 0 0 0 0 0 0
0 0 0 0 0 0 0 0 0 0 0 0 0 0 0 0 0 0 0 0 0 0 0 0 0 0 0 0 0 0 0 0 0 0 0 0 0 0 0 0 0 0 0 0 0 0 0 0 0
0 0 0 0 0 0 0 0 0 0 0 0 0 0 0 0 0 0 0 0 0 0 0 0 0 0 0 0 0 0 0 0 0 0 0 0 0 0 0 0 0 0 0 0 0 0 0 0 0
0 0 0 0 0 0 0 0 0 0 0 0 0 0 0 0 0 0 0 0 0 0 0 0 0 0 0 0 0 0 0 0 0 0 0 0 0 0 0 0 0 0 0 0 0 0 0 0 0
0 0 0 0 0 0 0 0 0 0 0 0 0 0 0 0 0 0 0 0 0 0 0 0 0 0 0 0 0 0 0 0 0 0 0 0 0 0 0 0 0 0 0 0 0 0 0 0 0

GEFSSGP_con_prob3kmehi_018.txt.gz
EHI
0 0 0 0 0 0 0 0 0 0 0 0 0 0 0 0 0 0 0 0 0 0 0 0 0 0 0 0 0 0 0 0 0 0 0 0 0 0 0 0 0 0 0 0 0 0 0 0 0
0 0 0 0 0 0 0 0 0 0 0 0 0 0 0 0 0 0 0 0 0 0 0 0 0 0 0 0 0 0 0 0 0 0 0 0 0 0 0 0 0 0 0 0 0 0 0 0 0
0 0 0 0 0 0 0 0 0 0 0 0 0 0 0 0 0 0 0 0 0 0 0 0 0 0 0 0 0 0 0 0 0 0 0 0 0 0 0 0 0 0 0 0 0 0 0 0 0
0 0 0 0 0 0 0 0 0 0 0 0 0 0 0 0 0 0 0 0 0 0 0 0 0 0 0 0 0 0 0 0 0 0 0 0 0 0 0 0 0 0 0 0 0 0 0 0 0
0 0 0 0 0 0 0 0 0 0 0 0 0 0 0 0 0 0 0 1 2 1 0 2 3 2 0 0 0 0 0 0 0 0 0 0 0 0 0 0 0 0 0 0 0 0 0 0 0
0 0 0 0 0 0 0 0 0 0 0 0 0 0 0 0 0 0 0 1 3 4 2 3 5 3 1 1 0 0 0 0 0 0 0 0 0 0 0 0 0 0 0 0 0 0 0 0 0
0 0 0 0 0 0 0 0 0 0 0 0 0 0 0 0 0 0 0 0 2 6 6 4 3 3 3 4 2 1 1 0 0 0 0 0 0 0 0 0 0 0 0 0 0 0 0 0 0
0 0 0 0 0 0 0 0 0 0 0 0 0 0 0 0 0 0 0 0 1 5 8 7 6 6 7 7 6 5 3 2 1 0 0 0 0 0 0 0 0 0 0 0 0 0 0 0 0
0 0 0 0 0 0 0 0 0 1 1 1 0 0 0 0 0 0 0 0 0 2 5 8 12 15 16 15 13 11 8 6 3 2 1 0 0 0 0 0 0 0 0 0 0 0 0 0 0
0 0 0 0 0 0 0 0 0 1 1 1 0 0 0 0 0 0 0 0 0 0 2 6 12 20 27 27 22 20 18 12 8 5 3 1 0 0 0 0 0 0 0 0 0 0 0 0 0
0 0 0 0 0 0 0 0 0 0 0 0 0 1 1 0 0 0 0 0 0 0 1 3 6 13 23 26 22 23 24 17 10 6 4 2 1 0 0 0 0 0 0 0 0 0 0 0 0
0 0 0 0 0 0 0 0 0 0 0 2 5 6 3 1 0 0 0 0 0 0 0 1 1 4 9 12 11 14 17 12 7 4 5 7 6 3 0 0 0 0 0 0 0 0 0 0 0
0 0 0 0 0 0 0 0 0 1 2 8 14 12 5 2 0 0 0 0 0 0 0 0 0 0 1 1 2 3 5 4 3 2 5 12 16 12 4 0 0 0 0 0 0 1 1 0 0
0 0 0 0 0 0 0 1 2 5 9 17 20 15 8 3 1 0 0 1 1 1 0 0 0 0 0 0 0 0 0 1 1 1 2 10 19 18 7 1 0 0 0 0 1 2 2 1 0
0 0 0 0 0 0 1 3 7 14 24 30 28 21 12 6 1 1 4 8 11 11 8 5 5 5 4 2 1 0 0 1 1 0 0 4 10 11 5 1 0 1 2 4 5 6 5 3 1
0 0 0 0 0 0 1 5 14 29 44 50 44 33 22 14 8 8 14 25 36 38 32 24 21 18 13 9 6 3 2 1 0 0 1 2 3 4 3 1 0 2 5 7 9 11 9 4 2
0 0 0 0 0 0 1 9 25 46 61 66 58 46 40 36 31 30 36 47 60 65 57 45 36 27 19 13 9 5 3 2 0 1 2 3 3 4 3 2 1 2 5 8 9 11 9 4 1
0 0 0 0 0 0 2 11 28 47 62 65 58 55 60 63 60 57 58 61 64 64 57 43 29 20 13 9 6 3 2 1 0 1 2 3 3 2 2 1 1 3 5 7 8 9 7 4 2
0 0 0 0 0 0 1 7 16 27 39 45 48 59 73 77 70 60 54 49 44 39 32 22 12 6 4 2 1 0 0 0 0 0 1 1 1 0 1 1 3 5 7 6 7 9 10 8 5
0 0 0 0 0 0 0 2 3 6 12 20 35 58 75 73 56 37 27 22 17 13 10 6 3 2 2 1 1 0 0 0 0 0 0 0 0 0 0 1 3 5 5 4 5 9 13 12 8
0 0 0 0 0 0 0 0 0 0 2 9 25 49 63 53 31 14 7 5 3 2 2 2 2 3 3 2 1 0 0 0 0 0 0 0 0 0 0 1 1 1 2 3 3 6 10 12 10
0 0 0 0 0 0 0 0 0 1 3 9 17 30 37 26 11 3 1 0 0 0 0 1 1 1 2 1 1 0 0 0 0 0 0 0 0 0 0 0 0 0 1 1 1 2 5 9 9
0 0 0 0 0 0 0 0 0 1 2 5 7 10 12 7 2 0 0 0 0 0 0 0 0 0 0 0 0 0 0 0 0 0 0 0 0 0 0 0 0 0 0 0 0 0 2 4 5
0 0 0 0 0 0 0 0 0 0 0 0 0 1 1 0 0 0 0 0 0 0 0 0 0 0 0 0 0 0 0 0 0 0 0 0 0 0 0 0 0 0 0 0 0 0 0 1 1
0 0 0 0 0 0 0 0 0 0 0 0 0 0 0 0 0 0 0 0 0 0 0 0 0 0 0 0 0 0 0 0 0 0 0 0 0 0 0 0 0 0 0 0 0 0 0 0 0
0 0 0 0 0 0 0 0 0 0 0 0 0 0 0 0 0 0 0 0 0 0 0 0 0 0 0 0 0 0 0 0 0 0 0 0 0 0 0 0 0 0 0 0 0 0 0 0 0
0 0 0 0 0 0 0 0 0 0 0 0 0 0 0 0 0 0 0 0 0 0 0 0 0 0 0 0 0 0 0 0 0 0 0 0 0 0 0 0 0 0 0 0 0 0 0 0 0
0 0 0 0 0 0 0 0 0 0 0 0 0 0 0 0 0 0 0 0 0 0 0 0 0 0 0 0 0 0 0 0 0 0 0 0 0 0 0 0 0 0 0 0 0 0 0 0 0
0 0 0 0 0 0 0 0 0 0 0 0 0 0 0 0 0 0 0 0 0 0 0 0 0 0 0 0 0 0 0 0 0 0 0 0 0 0 0 0 0 0 0 0 0 0 0 0 0
0 0 0 0 0 0 0 0 0 0 0 0 0 0 0 0 0 0 0 0 0 0 0 0 0 0 0 0 0 0 0 0 0 0 0 0 0 0 0 0 0 0 0 0 0 0 0 0 0

GEFSSGP_con_prob3kmehi_024.txt.gz
EHI
0 0 0 0 0 0 0 0 0 0 0 0 0 0 0 0 0 0 0 0 0 0 0 0 0 1 2 1 0 0 0 0 0 0 0 0 0 0 0 0 0 0 0 0 0 0 0 0 0
0 0 0 0 0 0 0 0 0 0 0 0 0 0 0 0 0 0 0 0 0 0 0 0 0 0 1 0 0 0 0 0 0 0 0 0 0 0 0 0 0 0 0 0 0 0 0 0 0
0 0 0 0 0 0 0 0 0 0 0 0 0 0 0 0 0 0 0 0 0 0 0 0 0 0 0 0 1 1 1 1 0 0 0 0 0 0 0 0 0 0 0 0 0 0 0 0 0
0 0 0 0 0 0 0 0 0 0 0 0 0 0 0 0 0 0 0 0 0 0 0 1 0 0 0 0 1 2 2 2 1 0 1 1 0 0 0 0 0 0 0 0 0 0 0 0 0
0 0 0 0 0 0 0 0 0 0 0 0 0 0 0 0 0 0 0 0 0 0 1 2 1 0 0 0 1 1 1 1 1 0 1 1 0 0 0 0 0 0 0 0 0 0 0 0 0
0 0 0 0 0 0 0 0 0 0 0 0 0 0 0 0 0 0 0 0 0 0 1 2 1 0 0 0 0 0 0 1 1 1 1 1 0 0 0 0 0 0 0 0 0 0 0 0 0
0 0 0 0 0 0 0 0 0 0 0 0 0 0 0 0 0 0 0 0 0 0 0 1 0 0 0 0 0 0 0 0 1 1 0 0 0 0 0 0 0 0 0 0 0 0 0 0 0
0 0 0 0 0 0 0 0 0 0 0 0 0 0 1 2 1 0 0 0 0 0 0 0 0 0 0 0 0 0 0 0 1 1 0 0 0 0 0 0 0 0 0 0 0 0 0 0 0
0 0 0 0 0 0 0 0 0 0 0 1 1 2 6 9 6 2 1 1 0 0 0 0 0 0 0 0 0 0 0 0 0 0 0 0 0 0 0 1 1 0 0 0 0 0 0 0 0
0 0 0 0 0 0 0 0 0 0 0 2 5 9 17 20 13 4 2 1 0 0 0 0 0 0 0 0 0 0 0 0 0 0 0 1 1 0 0 1 2 1 0 0 0 0 0 0 0
0 0 0 0 0 0 0 0 0 0 0 3 11 24 32 29 16 4 1 1 0 0 0 0 0 1 0 0 0 0 0 1 1 1 1 3 6 5 4 4 4 1 0 0 1 1 1 0 0
0 0 0 0 0 0 0 0 0 0 1 6 23 46 50 32 12 2 0 0 0 0 0 0 0 1 1 1 0 0 0 1 2 2 2 6 12 13 13 17 15 10 6 4 4 4 3 2 1
0 0 0 0 0 0 0 0 0 0 2 12 37 61 57 31 10 3 1 0 0 0 0 0 0 0 2 3 3 1 1 1 2 3 3 6 12 16 20 27 28 22 17 14 13 13 10 7 4
0 0 0 0 0 0 0 0 0 0 3 16 41 60 57 37 19 9 4 0 0 0 0 0 0 1 3 6 7 4 2 1 2 3 2 3 8 12 15 18 21 23 23 23 23 21 18 15 11
0 0 0 0 0 0 0 0 0 0 3 15 39 59 63 52 35 18 6 0 0 0 1 2 1 4 8 11 10 7 3 1 1 2 1 1 3 4 5 4 6 13 20 25 29 30 32 31 29
0 0 0 0 0 0 0 0 1 1 3 16 41 64 72 63 44 22 6 0 0 2 6 8 7 9 14 16 13 8 4 1 1 1 0 0 1 1 1 1 2 6 14 21 28 38 47 52 55
0 0 0 0 0 0 0 1 2 2 4 15 37 59 69 64 46 24 8 2 4 8 14 18 19 20 19 18 15 9 4 1 0 0 1 1 1 1 1 2 1 2 7 14 22 36 50 60 66
0 0 0 0 0 0 0 1 2 3 4 11 26 46 58 57 48 33 22 17 18 21 25 27 27 26 22 16 12 7 2 0 0 1 2 3 2 2 2 1 1 0 2 6 12 22 34 45 52
0 0 0 0 0 0 0 0 1 2 5 9 19 34 45 52 55 54 49 45 43 40 36 30 24 21 18 14 10 5 1 0 0 1 3 4 4 3 2 1 0 0 0 2 4 9 15 23 29
0 0 0 0 0 0 0 0 0 1 4 8 16 27 39 50 62 68 67 62 58 51 39 27 18 14 14 16 15 10 6 3 1 1 3 4 3 2 2 1 0 0 0 0 1 3 5 9 13
0 0 0 0 0 0 0 0 0 0 2 7 14 24 35 47 59 67 64 57 52 46 34 22 16 16 22 29 29 23 15 7 2 1 3 4 2 1 0 0 0 0 0 0 1 2 3 4 6
0 0 0 0 0 0 0 0 0 0 3 8 15 25 36 47 58 62 57 49 41 33 24 16 15 21 33 47 49 38 21 7 2 1 2 2 1 1 0 0 0 0 0 0 0 1 2 3 3
0 0 0 0 0 0 0 0 0 1 4 9 18 31 42 50 54 55 51 42 33 26 18 11 13 24 40 56 63 52 30 13 5 1 0 1 2 1 0 0 0 0 0 0 0 0 1 3 3
0 0 0 0 0 0 0 0 0 0 2 9 20 31 38 39 37 34 32 29 26 23 17 11 15 28 41 55 64 61 46 30 16 6 2 1 2 1 0 0 0 0 0 0 0 0 1 2 2
0 0 0 0 0 0 0 0 0 0 1 5 12 17 19 18 15 12 11 13 14 14 14 14 20 33 44 51 59 64 59 44 27 13 4 1 1 0 0 0 0 0 0 0 0 0 0 1 1
0 0 0 0 0 0 0 0 0 0 0 1 3 4 4 4 3 2 2 3 3 4 7 13 24 36 43 48 56 64 62 48 32 18 7 2 1 0 0 0 0 0 0 0 0 0 0 0 0
0 0 0 0 0 0 0 0 0 0 0 0 0 0 0 0 0 0 0 0 0 0 2 8 17 26 33 38 46 53 52 45 34 22 12 6 5 3 1 0 0 0 0 0 0 0 0 0 0
0 0 0 0 0 0 0 0 0 1 0 0 0 0 0 0 0 0 0 0 0 0 0 2 5 9 15 21 28 32 36 37 33 24 18 14 13 10 5 2 0 0 0 0 0 0 0 0 0
0 0 0 0 0 0 0 0 0 0 0 0 0 0 0 0 0 0 0 0 0 0 0 0 0 1 3 6 10 15 21 26 27 23 21 20 18 15 10 5 1 0 0 0 0 0 0 0 0
0 0 0 0 0 0 0 0 0 0 0 0 0 0 0 0 0 0 0 0 0 0 0 0 0 0 0 0 2 5 10 17 22 21 20 20 19 16 12 7 2 0 0 0 0 0 0 0 0

GEFSSGP_con_prob3kmehi_030.txt.gz
EHI
0 0 0 0 1 3 2 1 0 0 0 0 0 0 1 1 1 0 4 17 25 13 2 1 1 0 0 0 0 0 0 0 0 0 0 0 0 0 0 0 0 0 0 0 0 0 0 0 0
0 0 0 0 0 1 1 0 0 0 0 0 0 0 0 0 0 0 4 13 16 7 1 1 0 0 0 0 0 0 0 0 0 0 0 0 0 0 0 0 0 0 0 0 0 0 0 0 0
0 0 0 0 0 0 0 0 0 0 0 0 0 0 0 0 0 0 3 7 6 2 0 1 0 0 0 0 0 0 0 0 0 0 0 0 0 0 0 0 0 0 0 0 0 0 0 0 0
0 0 0 0 0 0 0 0 0 0 0 0 0 0 0 0 0 1 3 4 2 1 1 1 0 0 0 0 0 0 0 0 0 0 0 0 0 0 0 0 0 0 0 0 0 0 0 0 0
0 0 0 0 0 0 0 0 0 0 0 0 0 0 0 0 0 1 3 4 5 5 4 1 0 0 0 0 0 0 0 0 0 0 0 0 0 0 0 0 0 0 0 0 0 0 0 0 0
0 0 0 0 0 0 0 0 0 0 0 0 0 0 0 0 0 0 1 2 9 16 11 3 1 0 0 0 0 0 0 0 0 0 0 0 0 0 0 0 0 0 0 0 0 0 0 0 1
0 0 0 0 0 0 0 0 0 0 0 0 0 0 0 0 0 0 0 1 13 26 21 6 1 1 0 0 0 0 0 0 0 0 0 0 0 0 0 0 0 0 0 0 0 0 0 0 1
0 0 0 0 0 0 0 0 0 0 0 1 1 0 0 0 0 0 0 1 14 34 30 10 2 2 1 0 0 0 0 0 0 0 0 0 0 1 2 2 1 0 0 0 1 1 1 2 2
0 0 0 0 0 0 0 0 0 0 1 5 7 4 1 0 0 1 1 0 13 35 35 17 12 13 5 3 6 4 1 0 0 0 0 0 0 1 5 8 10 13 15 15 14 11 7 4 4
0 0 0 0 0 0 0 0 0 1 4 14 21 14 4 3 3 2 1 3 15 31 30 22 33 35 15 14 22 12 6 11 9 4 8 14 13 6 6 16 30 39 40 35 30 23 12 5 3
0 0 0 0 0 0 0 0 0 1 6 21 29 21 11 11 11 7 6 15 28 30 18 23 51 59 32 29 41 27 21 34 34 25 32 47 41 19 11 27 51 60 54 41 30 22 14 6 3
0 0 0 0 0 0 0 0 0 0 6 16 21 19 17 21 21 18 21 37 50 36 16 26 62 76 57 46 49 41 34 46 57 58 64 73 67 41 27 39 56 60 56 45 33 27 24 20 17
0 0 0 0 0 0 0 0 0 1 4 7 10 14 19 24 28 33 45 65 71 51 28 38 71 89 81 64 54 42 37 47 63 74 80 81 75 58 43 45 49 49 49 51 48 43 41 41 39
0 0 0 0 0 0 0 0 0 2 4 4 6 12 17 23 33 51 73 87 85 67 53 61 80 94 93 79 61 45 39 48 59 68 72 73 71 60 43 38 38 39 43 50 51 48 47 46 44
0 0 0 0 0 0 0 0 0 1 3 4 6 9 19 29 40 62 86 96 92 83 80 82 85 93 96 88 73 54 44 48 57 58 55 55 58 49 34 28 31 37 41 43 43 44 46 45 42
0 0 0 0 0 0 0 0 0 0 1 1 3 8 24 43 53 65 83 92 92 93 96 93 88 93 98 92 80 61 50 52 54 46 44 44 41 32 23 19 24 30 30 29 31 39 45 48 48
0 0 0 0 0 0 0 0 0 0 0 1 2 8 30 57 69 71 77 85 90 96 99 96 94 96 99 92 77 60 53 49 40 29 32 35 25 15 12 10 13 15 15 13 15 25 36 39 40
0 0 0 0 0 0 0 0 0 1 2 4 6 13 36 64 77 76 76 79 87 94 96 97 98 99 97 89 71 56 45 33 19 14 20 21 13 7 6 4 3 5 5 4 5 10 17 19 18
0 0 0 0 0 0 0 0 1 3 6 8 13 25 45 65 73 71 68 70 77 83 88 92 95 93 89 80 68 56 40 21 8 9 16 17 10 5 5 3 1 1 2 1 1 2 4 4 4
0 0 0 0 0 0 0 1 3 7 11 17 27 41 54 61 59 52 46 47 54 61 68 77 83 80 73 67 60 52 40 22 11 16 27 29 21 13 8 6 3 1 1 0 0 0 0 0 1
0 0 0 0 0 0 0 1 6 13 21 33 46 55 55 48 40 30 22 24 31 39 49 60 67 67 63 63 57 51 45 32 23 30 45 49 38 23 14 9 5 2 1 0 0 0 0 0 0
0 0 0 0 0 0 0 1 7 21 37 51 59 55 44 30 21 16 13 15 20 29 40 51 59 63 67 70 68 62 54 45 42 50 61 62 47 31 22 15 9 5 2 0 0 0 0 0 0
0 0 0 0 0 0 0 1 7 26 49 61 57 44 30 18 11 11 13 13 14 20 31 43 53 62 69 75 74 70 61 55 58 65 70 65 51 39 33 25 19 12 5 2 1 1 1 0 1
0 0 0 0 0 0 0 0 8 29 53 58 46 30 18 10 6 7 9 8 6 9 18 28 40 49 56 62 66 66 64 64 66 70 72 67 59 53 47 41 35 25 13 6 3 2 1 1 1
0 0 0 0 0 0 0 3 14 31 41 39 28 15 7 3 2 2 3 2 1 3 7 13 20 26 31 35 44 52 57 62 67 71 73 72 69 66 62 56 51 38 22 11 5 2 1 1 1
0 0 0 0 0 0 1 8 19 23 19 14 9 4 1 0 0 0 0 0 0 0 2 3 6 8 9 12 19 28 36 45 56 66 72 77 78 76 73 68 60 48 32 18 10 5 1 1 1
0 0 0 0 0 0 2 9 13 10 4 1 0 0 0 0 0 0 0 0 0 0 0 0 0 1 1 2 4 8 13 21 32 43 55 67 74 76 75 71 64 54 40 28 18 9 3 1 1
0 0 0 0 0 0 1 5 10 8 3 0 0 0 0 0 0 0 0 0 0 0 0 0 0 0 0 0 0 1 3 6 11 18 28 39 49 58 63 62 59 52 42 32 23 13 5 1 0
0 0 0 0 0 0 0 3 10 11 4 0 0 0 0 0 0 0 0 0 0 0 0 0 0 0 0 0 0 0 0 1 2 4 8 12 19 28 36 42 43 40 32 25 20 11 4 2 1
0 0 0 0 0 0 0 3 8 8 3 0 0 0 0 0 0 0 0 0 0 0 0 0 0 0 0 0 0 0 0 0 0 0 1 2 5 9 15 23 30 31 25 19 13 7 3 2 1

GEFSSGP_con_prob3kmehi_036.txt.gz
EHI
0 0 0 0 0 0 0 0 0 0 0 0 0 1 1 1 0 0 0 0 1 4 12 23 27 18 6 1 0 0 0 0 0 0 0 0 0 0 0 0 0 0 0 0 0 0 0 0 0
0 0 0 0 0 0 0 0 0 0 0 0 0 0 0 0 0 0 0 0 2 7 14 27 36 27 11 3 0 0 0 0 0 0 0 0 0 0 0 0 0 0 0 0 0 0 0 0 0
0 0 0 0 0 0 0 0 0 0 0 0 0 0 0 0 0 0 0 0 2 7 16 36 52 42 20 6 1 0 0 0 0 0 0 0 0 0 0 0 0 0 0 0 0 0 0 0 0
0 0 0 0 0 0 0 0 0 0 0 0 0 0 0 1 2 2 1 1 2 6 19 45 65 58 33 13 4 1 0 0 0 0 0 0 0 0 0 0 0 0 0 0 0 0 0 0 0
0 0 0 0 0 0 0 0 0 0 0 0 0 0 0 2 6 5 2 1 3 8 23 50 71 68 48 24 9 2 0 0 0 0 0 0 0 0 0 0 0 0 0 0 0 0 0 0 0
0 0 0 0 0 0 0 0 0 0 0 0 0 0 0 3 6 5 2 1 3 12 29 49 65 66 53 33 14 4 1 0 0 0 0 0 0 0 0 0 0 0 0 0 0 0 0 0 0
0 0 0 0 0 0 0 0 0 0 0 0 0 0 0 2 4 3 1 1 2 12 30 44 49 46 39 26 12 5 2 0 0 0 0 0 0 0 0 0 0 0 0 0 0 0 0 0 0
0 0 0 0 0 0 0 0 0 0 1 0 0 0 0 1 4 5 6 6 5 9 23 37 36 26 17 10 7 4 2 1 0 0 0 0 0 0 0 0 0 0 0 0 0 0 0 0 0
0 0 0 0 0 0 0 0 0 2 4 2 0 1 1 3 7 15 23 23 16 11 16 29 31 21 9 4 3 3 2 1 0 0 0 0 0 0 0 0 0 0 0 0 0 0 0 0 0
0 0 0 0 0 0 0 1 2 4 6 5 3 4 5 7 13 27 42 45 36 21 15 21 27 22 13 6 4 4 3 1 0 0 0 0 0 0 0 0 0 0 0 0 0 0 1 1 1
0 0 0 0 0 0 0 1 2 4 6 6 6 7 9 13 19 31 48 59 54 35 18 16 20 20 14 7 5 4 3 1 0 0 0 0 0 0 0 0 0 0 0 1 1 1 2 3 3
0 0 0 0 0 0 0 0 1 1 4 7 8 8 11 17 23 30 43 58 65 52 29 16 13 13 10 6 5 4 3 2 1 0 0 0 0 0 0 0 0 0 1 2 2 2 2 3 4
0 0 0 0 0 0 0 0 0 0 5 9 9 7 11 17 24 30 37 51 65 61 41 22 12 9 7 5 6 5 4 3 2 1 1 2 3 2 1 0 0 0 1 2 2 1 1 2 3
0 0 0 0 0 0 0 0 0 3 10 14 10 9 11 16 23 29 34 44 55 55 42 27 17 13 10 11 14 14 13 12 10 6 5 7 9 6 2 0 0 0 1 1 1 0 0 1 2
0 0 0 0 0 0 0 0 1 7 17 17 13 12 15 18 22 26 29 35 40 40 34 27 23 21 21 24 30 33 29 25 19 13 11 12 12 6 1 0 0 0 0 0 0 0 0 0 1
0 0 0 0 0 0 0 0 1 9 19 21 17 18 22 26 27 25 23 25 26 26 24 22 23 24 28 34 40 41 36 30 22 17 15 15 10 4 1 0 0 0 0 0 0 0 0 0 0
0 0 0 0 0 0 1 2 4 10 19 25 27 30 35 37 33 25 20 18 17 17 16 16 16 20 25 32 34 31 28 25 19 15 15 13 8 3 1 0 0 0 0 0 0 0 0 0 0
0 0 0 0 0 1 2 4 8 14 23 32 39 46 48 43 32 21 15 12 11 11 11 9 10 13 18 22 22 19 18 16 12 9 9 7 5 2 1 0 0 0 0 0 0 0 0 0 0
0 0 0 0 0 1 2 5 11 18 27 37 46 52 49 37 24 14 8 6 5 5 5 5 5 8 11 13 12 12 11 8 5 3 3 3 2 1 0 0 0 0 0 0 0 0 0 0 0
0 0 0 0 0 1 1 3 9 15 22 32 40 40 33 22 13 7 2 1 1 1 1 2 3 4 6 7 7 6 5 3 1 0 1 1 2 2 1 0 0 0 0 0 0 0 0 0 0
0 0 0 0 0 0 0 1 4 8 14 20 24 21 15 9 5 2 0 0 0 0 0 1 1 1 3 5 5 5 4 3 2 1 1 1 2 2 1 0 0 0 0 0 0 0 0 0 0
0 0 0 0 0 0 0 0 1 4 7 9 9 7 5 3 1 0 0 0 1 0 0 0 0 0 1 2 3 4 4 4 4 3 2 1 1 1 0 0 0 0 0 0 0 0 0 0 0
0 0 0 0 0 0 0 0 0 2 3 3 2 1 1 1 0 0 0 0 0 0 0 0 0 0 0 0 1 2 2 3 3 2 2 1 0 0 0 0 0 0 0 0 0 0 0 0 0
0 0 0 0 0 0 0 0 0 1 1 1 0 0 0 0 0 0 0 0 0 0 0 0 0 0 0 0 0 0 1 1 1 0 1 1 0 0 0 0 0 0 0 0 0 0 0 0 0
0 0 0 0 0 0 0 0 0 0 0 0 0 0 0 0 0 0 0 0 0 0 0 0 0 0 0 0 0 0 0 0 0 0 0 0 0 0 0 0 0 0 0 0 0 0 0 0 0
0 0 0 0 0 0 0 0 0 0 0 0 0 0 0 0 0 0 0 0 0 0 0 0 0 0 0 0 0 0 0 0 0 0 0 0 0 0 0 0 0 0 1 0 0 0 0 0 0
0 0 0 0 0 0 0 0 0 0 0 0 0 0 0 0 0 0 0 0 0 0 0 0 0 0 0 0 0 0 0 0 0 0 0 0 0 0 0 0 0 0 0 0 0 0 0 0 0
0 0 0 0 0 0 0 0 0 0 0 0 0 0 0 0 0 0 0 0 0 0 0 0 0 0 0 0 0 0 0 0 0 0 0 0 0 0 0 0 0 0 0 0 0 0 0 0 0
0 0 0 0 0 0 0 0 0 0 0 0 0 0 0 0 0 0 0 0 0 0 0 0 0 0 0 0 0 0 0 0 0 0 0 0 0 0 0 0 0 0 0 0 0 0 0 0 0
0 0 0 0 0 0 0 0 0 0 0 0 0 0 0 0 0 0 0 0 0 0 0 0 0 0 0 0 0 0 0 0 0 0 0 0 0 0 0 0 0 0 0 0 0 0 0 0 0

GEFSSGP_con_prob3kmehi_042.txt.gz
EHI
0 0 0 0 0 0 0 0 0 0 0 0 0 0 0 0 0 0 0 0 0 1 2 1 2 4 3 3 3 3 6 10 12 8 5 3 2 1 0 0 0 0 0 0 0 0 0 0 0
0 0 0 0 0 0 0 0 0 0 0 0 0 0 0 0 0 0 0 0 0 1 2 3 7 8 5 4 3 3 5 7 8 6 4 3 2 0 0 0 0 0 0 0 0 0 0 0 0
0 0 0 0 0 0 0 0 0 0 0 0 0 0 0 0 0 0 0 0 0 1 1 9 21 21 13 8 5 4 4 4 4 4 3 3 2 1 0 0 0 0 0 0 0 0 0 0 0
0 0 0 0 0 0 0 0 0 0 0 0 0 0 0 0 0 0 0 0 0 1 2 18 41 42 26 16 10 6 4 3 3 3 3 3 2 1 0 0 0 0 0 0 0 0 0 0 0
0 0 0 0 0 0 0 0 0 0 0 0 0 0 0 0 0 0 0 0 2 5 7 27 54 57 40 26 16 10 6 4 3 3 2 1 1 0 0 0 0 0 0 0 0 0 0 0 0
0 0 0 0 0 0 0 0 0 0 0 0 0 0 0 0 0 0 0 1 7 16 23 36 55 59 48 36 25 16 9 5 3 3 1 0 0 0 0 0 0 0 0 0 0 0 0 0 0
0 0 0 0 0 0 0 0 0 0 0 0 0 0 0 0 0 1 2 5 15 30 42 47 54 57 51 41 30 22 13 6 3 2 1 0 0 0 0 0 0 0 0 0 0 0 0 0 0
0 0 0 0 0 0 0 0 0 0 0 0 0 0 1 4 5 4 4 9 19 35 49 53 53 55 52 41 29 19 12 6 2 1 0 0 0 0 0 0 0 0 0 0 0 0 0 0 0
0 0 0 0 0 0 0 0 0 0 0 0 0 0 8 19 20 13 10 12 18 30 42 48 51 54 51 40 24 14 9 5 2 1 1 1 0 0 0 0 0 0 0 0 0 0 0 0 0
0 0 0 0 0 0 0 0 0 0 0 0 0 4 21 43 43 28 18 15 17 26 35 42 47 51 51 43 26 14 10 7 4 3 2 2 2 1 1 0 0 0 0 0 0 0 0 0 0
0 0 0 0 0 0 0 0 0 0 0 0 2 12 36 58 58 42 27 20 20 27 35 41 44 46 48 44 30 19 15 13 9 6 5 5 5 5 3 2 1 0 0 0 0 0 0 0 0
0 0 0 0 0 0 0 0 0 0 0 1 5 19 42 59 58 46 35 30 29 33 39 42 41 40 39 36 27 21 18 16 14 12 12 11 9 7 6 4 2 1 0 0 0 1 1 1 1
0 0 0 0 0 0 0 0 0 0 1 4 12 25 41 49 48 42 39 38 37 35 36 36 32 29 26 23 19 16 15 14 15 17 19 19 15 9 6 4 3 1 0 0 1 1 1 1 1
0 0 0 0 0 0 0 1 1 1 3 10 20 30 38 40 37 35 34 34 32 28 26 24 20 17 16 16 14 10 10 10 12 15 17 19 16 9 4 4 4 2 1 0 1 1 1 1 1
0 0 0 0 0 0 1 2 2 3 6 13 21 27 30 28 25 23 20 19 19 19 17 14 11 10 11 13 12 9 8 8 9 11 11 11 10 7 4 4 3 3 1 0 0 1 1 0 0
0 0 0 0 0 0 1 3 3 4 7 11 14 16 17 14 13 11 8 7 8 11 11 9 8 8 9 10 10 9 8 8 9 9 7 6 5 4 5 4 2 2 1 0 0 0 0 0 0
0 0 0 0 1 1 2 4 4 5 7 7 7 7 7 6 6 5 3 3 3 5 6 7 7 7 7 8 9 8 8 10 10 8 5 5 4 4 4 3 1 1 1 0 0 0 0 0 0
0 0 0 0 0 0 1 3 5 5 4 3 3 2 2 3 4 3 2 1 2 1 3 5 6 5 5 7 8 7 7 8 9 7 6 4 4 4 3 1 0 0 0 0 0 0 0 0 0
0 0 0 0 0 0 0 2 3 3 2 1 0 0 0 1 1 1 0 0 0 0 1 3 3 3 3 4 6 5 5 5 5 6 5 3 2 3 3 1 0 0 0 0 0 0 0 0 0
0 0 0 0 0 0 0 1 1 1 1 0 0 0 0 0 1 0 0 0 0 0 1 1 1 1 0 1 3 3 3 3 3 3 3 2 1 1 2 1 0 0 0 0 0 0 0 0 0
0 0 0 0 0 0 0 0 0 0 0 0 0 0 0 0 0 0 0 0 0 0 0 0 0 0 0 0 1 1 1 2 1 1 1 1 1 0 0 0 0 0 0 0 0 0 0 0 0
0 0 0 0 0 0 0 0 0 0 0 0 0 0 0 0 0 0 0 0 0 0 0 0 0 0 0 0 0 0 0 0 0 0 0 0 0 0 0 0 0 0 0 0 0 0 0 0 0
0 0 0 0 0 0 0 0 0 0 0 0 0 0 0 0 0 0 0 0 0 0 0 0 0 0 0 0 0 0 0 0 0 0 0 0 0 0 0 0 0 0 0 0 0 0 0 0 0
0 0 0 0 0 0 0 0 0 0 0 0 0 0 0 0 0 0 0 0 0 0 0 0 0 0 0 0 0 0 0 0 0 0 0 0 0 0 0 0 0 0 0 0 0 0 0 0 0
0 0 0 0 0 0 0 0 0 0 0 0 0 0 0 0 0 0 0 0 0 0 0 0 0 0 0 0 0 0 0 0 0 0 0 0 0 0 0 0 0 0 0 0 0 0 0 0 0
0 0 0 0 0 0 0 0 0 0 0 0 0 0 0 0 0 0 0 0 0 0 0 0 0 0 0 0 0 0 0 0 0 0 0 0 0 0 0 0 0 0 0 0 0 0 0 0 0
0 0 0 0 0 0 0 0 0 0 0 0 0 0 0 0 0 0 0 0 0 0 0 0 0 0 0 0 0 0 0 0 0 0 0 0 0 0 0 0 0 0 0 0 0 0 0 0 0
0 0 0 0 0 0 0 0 0 0 0 0 0 0 0 0 0 0 0 0 0 0 0 0 0 0 0 0 0 0 0 0 0 0 0 0 0 0 0 0 0 0 0 0 0 0 0 0 0
0 0 0 0 0 0 0 0 0 0 0 0 0 0 0 0 0 0 0 0 0 0 0 0 0 0 0 0 0 0 0 0 0 0 0 0 0 0 0 0 0 0 0 0 0 0 0 0 0
0 0 0 0 0 0 0 0 0 0 0 0 0 0 0 0 0 0 0 0 0 0 0 0 0 0 0 0 0 0 0 0 0 0 0 0 0 0 0 0 0 0 0 0 0 0 0 0 0

GEFSSGP_con_prob3kmehi_048.txt.gz
EHI
0 0 0 0 0 0 0 0 0 0 0 0 0 0 0 0 0 0 0 1 5 23 37 27 10 2 0 0 1 3 7 9 12 14 11 5 2 1 0 0 0 0 0 0 0 0 0 0 0
0 0 0 0 0 0 0 0 0 0 0 0 0 0 0 0 0 0 0 0 4 18 29 24 11 3 0 0 0 2 5 8 9 9 7 3 1 0 0 0 0 0 0 0 0 0 0 0 0
0 0 0 0 0 0 0 0 0 0 0 0 0 0 0 0 0 0 0 0 4 13 22 23 13 3 0 0 0 1 3 4 5 4 2 1 0 0 0 0 0 0 0 0 0 0 0 0 0
0 0 0 0 0 0 0 0 0 0 0 0 0 0 0 0 0 0 0 0 4 10 18 21 14 4 1 0 0 0 1 1 1 1 0 0 0 0 0 0 0 0 0 0 0 0 0 0 0
0 0 0 0 0 0 0 0 0 0 0 0 0 0 0 0 0 0 0 0 2 6 11 16 13 5 1 0 0 0 0 0 0 0 0 0 0 0 0 0 0 0 0 0 0 0 0 0 0
0 0 0 0 0 0 0 0 0 0 0 0 0 0 1 1 1 1 0 0 1 2 5 11 11 5 1 0 1 1 1 1 0 0 0 0 0 0 0 0 0 0 0 0 0 0 0 0 0
0 0 0 0 0 0 0 0 0 0 0 0 0 0 4 8 8 4 2 1 0 0 2 5 5 3 1 0 1 2 2 2 2 2 2 1 0 0 0 0 0 0 0 0 0 0 0 0 0
0 0 0 0 0 0 0 0 0 0 0 0 0 1 11 26 29 20 10 4 1 0 0 1 1 1 0 0 1 2 4 5 6 6 5 4 2 0 0 1 1 1 0 0 0 0 0 0 0
0 0 0 0 0 0 0 0 0 0 0 1 1 5 23 48 58 46 29 15 8 4 2 2 3 3 2 1 1 3 6 9 10 10 10 8 5 2 1 4 8 5 1 0 0 0 0 0 0
0 0 0 0 0 0 0 0 0 0 1 2 4 9 27 54 70 65 49 35 24 14 9 11 13 13 10 7 7 8 11 13 14 16 19 20 17 12 8 10 15 11 4 1 1 1 0 0 0
0 0 0 0 0 0 0 1 2 3 4 5 7 11 21 38 55 61 57 50 42 30 21 21 25 25 21 18 17 16 18 20 20 26 35 39 39 33 25 21 19 14 10 8 8 7 4 1 0
0 0 0 0 0 0 0 1 4 7 9 10 11 12 16 24 36 46 53 56 51 40 30 29 35 37 35 31 28 24 24 24 25 33 44 52 57 52 43 39 32 22 17 17 17 14 10 5 3
0 0 0 0 0 0 0 1 4 9 12 15 18 22 26 34 40 47 54 56 51 42 33 32 39 43 44 43 39 32 28 24 24 30 40 50 56 53 51 55 51 32 20 19 19 15 12 11 8
0 0 0 0 0 0 0 1 4 8 11 16 24 33 43 52 57 59 59 55 48 41 35 33 36 40 42 44 41 33 27 23 20 22 29 38 44 46 50 58 54 36 22 21 21 16 15 14 11
0 0 0 0 0 0 0 1 2 6 10 16 25 35 45 52 55 55 52 48 44 40 36 31 29 30 32 34 31 22 17 16 16 19 23 26 31 38 45 50 46 35 29 30 28 21 17 13 9
0 0 0 0 0 0 0 1 2 6 10 14 20 25 29 33 36 36 35 34 35 35 31 26 22 22 23 23 17 11 9 9 13 21 23 19 20 27 35 38 37 35 34 34 30 22 16 11 9
0 0 0 0 0 0 0 0 2 5 9 11 12 13 15 18 21 22 23 24 26 27 24 19 17 16 16 13 9 7 7 8 11 18 18 13 11 16 23 27 28 31 31 29 24 21 15 10 7
0 0 0 0 1 0 0 0 1 3 4 4 5 6 7 8 11 14 16 16 17 18 16 14 13 13 11 9 7 6 7 7 8 10 9 6 6 10 15 17 19 22 22 19 18 17 13 7 4
0 0 0 0 0 0 0 0 0 1 1 1 2 2 2 3 4 6 7 7 8 8 8 8 7 7 8 8 7 7 7 7 5 5 3 2 3 7 10 11 13 15 15 14 14 13 8 4 2
0 0 0 0 0 0 0 0 0 0 0 1 1 1 0 0 1 1 1 1 1 1 2 2 2 3 4 5 4 4 5 5 4 2 1 1 2 4 5 7 9 10 13 13 11 9 7 4 2
0 0 0 1 0 0 0 0 0 0 0 1 1 0 0 0 0 0 0 0 0 0 0 0 0 0 1 1 1 1 1 2 2 1 0 1 1 1 1 3 3 6 9 10 8 6 5 4 2
0 0 1 2 1 0 0 0 0 0 0 0 0 0 0 0 0 0 0 0 0 0 0 0 0 0 0 0 0 0 0 1 1 0 0 0 0 0 0 0 0 2 5 6 4 3 2 1 1
0 0 0 1 0 0 0 0 1 1 1 0 0 0 0 0 0 0 0 0 0 0 0 0 0 0 0 0 0 0 0 0 0 0 0 0 0 0 0 0 0 1 2 3 2 1 1 0 0
0 0 0 0 0 0 0 2 4 4 2 1 0 0 0 0 0 0 0 0 0 0 0 0 0 0 0 0 0 0 0 0 0 0 0 0 0 0 0 0 0 0 0 0 0 0 1 0 0
0 0 0 0 0 0 0 3 7 6 3 1 0 0 0 0 0 0 0 0 0 0 0 0 0 0 0 0 0 0 0 0 0 0 0 0 0 0 0 0 0 0 0 0 0 0 1 1 0
0 0 0 0 0 0 0 3 5 4 1 0 0 0 0 0 0 0 0 0 0 0 0 0 0 0 0 0 0 0 0 0 0 0 0 0 0 0 0 0 0 0 0 0 0 0 0 1 1
0 0 0 0 0 0 0 1 1 1 0 0 0 0 0 0 0 0 0 0 0 0 0 0 0 0 0 0 0 0 0 0 0 0 0 0 0 0 0 0 0 0 0 0 0 0 0 1 1
0 0 0 0 0 0 0 0 0 0 0 0 0 0 0 0 0 0 0 0 0 0 0 0 0 0 0 0 0 0 0 0 0 0 0 0 0 0 0 0 0 0 0 0 0 0 0 0 1
0 0 0 0 0 0 0 0 0 0 0 0 0 0 0 0 0 0 0 0 0 0 0 0 0 0 0 0 0 0 0 0 0 0 0 0 0 0 0 0 0 0 0 0 0 0 0 0 0
0 0 0 0 0 0 0 0 0 0 0 0 0 0 0 0 0 0 0 0 0 0 0 0 0 0 0 0 0 0 0 0 0 0 0 0 0 0 0 0 0 0 0 0 0 0 0 0 0

GEFSSGP_con_prob3kmehi_054.txt.gz
EHI
0 0 0 0 1 3 1 0 0 0 0 0 0 0 0 0 0 0 11 45 75 66 40 35 36 25 12 5 1 0 0 0 0 0 0 0 0 0 0 0 0 0 0 0 0 0 0 0 0
0 0 0 2 5 4 1 0 0 0 0 0 0 0 0 0 0 1 16 51 72 54 29 26 28 20 11 6 3 1 0 0 0 0 0 0 0 0 0 0 0 0 0 0 0 0 0 0 0
0 0 0 3 8 5 1 0 0 0 0 0 0 0 0 0 0 2 21 54 66 43 22 19 19 13 8 6 3 1 0 0 0 1 2 1 1 0 0 0 0 0 0 0 0 0 0 0 0
0 0 0 2 4 2 0 0 0 0 0 0 2 2 1 0 0 2 20 49 58 40 24 17 13 9 6 5 2 0 0 0 1 2 3 3 2 1 0 0 1 1 0 0 0 0 0 0 0
0 0 0 0 0 0 0 0 0 0 0 1 3 5 3 1 0 1 14 34 44 41 31 19 13 9 6 4 1 0 0 0 1 2 3 3 2 1 1 3 5 5 3 1 0 0 0 0 0
0 0 0 0 0 0 0 0 0 0 0 0 3 7 6 2 0 1 6 16 32 47 41 24 16 12 7 4 2 1 0 0 1 3 3 2 1 2 4 8 13 13 8 4 2 1 1 1 0
0 0 0 0 0 0 0 0 0 0 0 0 3 7 7 2 0 0 1 8 30 52 47 27 17 13 8 4 3 2 1 1 2 3 2 1 1 2 5 11 18 19 16 11 7 4 3 3 2
0 0 0 0 0 0 0 0 0 1 3 7 10 10 7 2 0 0 0 7 29 51 45 25 16 13 8 5 4 3 3 3 3 3 2 1 1 1 3 9 19 24 24 20 14 9 7 6 4
0 0 0 0 0 0 0 0 0 4 12 22 25 19 10 3 1 1 2 7 26 46 44 28 22 18 8 7 10 7 4 5 5 4 5 5 3 1 4 16 32 40 39 35 29 20 15 11 7
0 0 0 0 0 0 0 1 3 10 23 33 34 26 14 7 5 5 7 13 26 40 40 37 40 31 14 15 23 14 10 17 15 12 16 17 10 4 10 32 57 65 58 51 45 37 28 18 10
0 0 0 0 0 0 1 4 10 19 30 36 37 30 20 15 13 13 16 25 36 38 37 46 58 52 32 32 37 25 24 37 35 30 35 37 29 19 22 46 74 81 71 59 52 47 35 18 10
0 0 0 0 0 0 1 6 17 27 34 40 44 42 35 32 32 34 38 48 56 51 44 54 71 71 57 51 49 42 41 48 50 49 52 57 57 47 44 60 76 78 70 61 53 47 36 21 14
0 0 0 0 0 0 2 7 16 27 37 46 56 61 58 56 59 64 68 75 78 69 61 66 76 79 72 62 56 52 51 50 49 53 61 69 75 72 67 68 68 62 59 57 51 46 41 35 30
0 0 0 0 0 1 3 7 13 22 34 47 61 71 75 75 78 84 88 90 88 81 75 73 73 75 73 65 57 52 51 49 46 51 63 71 76 76 70 61 52 45 43 43 43 44 46 45 40
0 0 0 0 0 1 4 11 17 20 27 39 51 64 73 77 81 87 90 90 88 84 81 74 67 65 66 62 56 50 48 47 49 53 59 62 64 62 56 47 40 34 30 31 33 36 40 38 34
0 0 0 0 0 0 4 14 22 22 23 29 35 44 55 64 70 75 78 79 79 79 79 74 65 62 62 59 54 47 44 44 46 47 49 49 48 44 40 35 31 26 21 22 25 27 29 28 25
0 0 0 0 0 0 5 16 23 23 22 23 24 28 34 41 46 49 52 55 59 64 68 68 65 62 60 56 50 45 43 40 38 37 37 38 32 28 27 26 24 20 17 16 17 19 21 21 20
0 0 0 0 0 1 8 18 21 19 19 18 17 17 18 20 22 23 25 29 35 43 50 55 57 58 56 53 50 46 43 37 30 26 26 24 19 16 17 19 19 17 15 13 13 13 14 15 15
0 0 0 1 0 2 9 16 17 15 16 15 11 9 9 9 9 9 10 12 16 22 29 36 41 42 42 43 42 40 35 28 19 14 13 12 9 8 10 13 15 15 12 10 10 9 9 9 10
0 0 0 0 0 2 8 13 15 14 14 11 7 5 4 4 4 3 3 3 5 9 14 20 24 25 26 28 27 25 22 17 10 7 8 8 5 3 4 8 10 10 9 8 7 6 6 5 5
0 0 0 0 0 2 6 11 15 13 9 6 3 3 2 2 2 1 0 0 1 4 6 10 16 17 16 16 15 14 12 9 6 7 9 7 3 1 1 3 4 5 7 7 5 4 5 4 4
0 0 0 0 0 1 2 6 10 9 5 2 0 0 0 0 0 0 0 0 0 1 3 8 13 16 15 13 11 8 6 3 3 5 6 5 2 1 0 1 2 2 4 5 4 4 5 5 3
0 0 0 0 0 0 0 1 4 6 4 2 0 0 0 0 0 0 0 0 1 1 1 6 14 18 17 13 9 5 2 1 1 1 2 1 1 1 0 1 1 1 2 2 3 3 5 4 2
0 0 0 0 0 0 0 1 3 4 4 3 1 0 0 0 0 0 0 1 2 2 1 4 11 18 17 10 5 3 1 0 0 0 0 0 0 0 0 0 0 0 0 1 1 2 2 2 1
0 0 0 0 0 0 0 2 4 5 4 2 1 0 0 0 0 0 0 1 2 2 1 1 5 9 8 4 2 1 1 0 0 0 0 0 0 0 0 0 0 0 0 0 0 0 1 1 0
0 0 0 0 0 0 2 5 7 5 2 1 0 0 0 0 0 0 0 0 1 1 0 0 0 1 1 0 0 0 0 0 0 0 0 0 0 0 0 0 0 0 0 0 0 0 0 0 0
0 0 0 0 0 0 3 8 7 3 1 0 0 0 0 0 0 0 0 0 0 0 0 0 0 0 0 0 0 0 0 0 0 0 0 0 0 0 0 0 0 0 0 1 0 0 0 0 0
0 0 0 0 0 0 2 4 4 1 0 0 0 0 0 0 0 0 0 0 0 0 0 0 0 0 0 0 0 0 0 0 0 0 0 0 0 0 0 0 0 0 0 0 0 0 0 0 0
0 0 0 0 0 0 0 0 1 0 0 0 0 0 0 0 0 0 0 0 0 0 0 0 0 0 0 0 0 0 0 0 0 0 0 0 0 0 0 0 0 0 0 0 0 0 0 0 0
0 0 0 0 0 0 0 0 0 0 0 0 0 0 0 0 0 0 0 0 0 0 0 0 0 0 0 0 0 0 0 0 0 0 0 0 0 0 0 0 0 0 0 0 0 0 0 0 0

GEFSSGP_con_prob3kmehi_060.txt.gz
EHI
0 0 0 0 0 0 0 0 0 0 0 0 0 0 1 2 1 1 5 21 45 53 45 48 69 85 85 75 54 28 9 1 0 0 0 0 0 0 0 0 0 0 0 0 0 0 0 0 0
0 0 0 0 0 0 0 0 0 0 0 0 0 0 1 2 2 2 7 22 43 52 46 50 70 83 83 74 56 33 14 4 1 0 0 0 0 0 0 0 0 0 0 0 0 0 0 0 0
0 0 0 0 1 2 1 0 0 0 0 0 0 0 0 2 3 5 10 22 38 45 44 52 70 81 81 73 58 39 22 11 4 1 1 0 0 0 0 0 0 0 0 0 0 0 0 0 0
0 0 0 0 1 3 3 1 0 1 2 2 1 0 0 5 12 15 14 20 31 38 40 49 66 78 80 73 58 42 29 19 9 4 2 0 0 0 0 0 0 0 0 0 0 0 0 0 0
0 0 0 0 1 2 3 2 2 3 4 4 2 1 1 12 25 24 14 15 26 33 33 41 57 69 72 67 56 44 33 23 13 7 3 1 1 0 0 0 0 0 0 0 0 0 0 0 0
0 0 0 0 0 0 1 2 5 8 8 6 3 1 4 17 29 22 10 8 17 26 27 30 42 51 56 56 52 43 32 23 16 9 4 2 2 1 1 1 1 0 1 1 0 0 0 0 0
0 0 0 0 0 0 1 6 12 16 15 9 3 1 4 16 24 21 14 8 9 15 19 20 24 29 34 39 40 34 26 20 15 10 5 3 2 2 2 2 2 2 3 3 2 1 1 1 1
0 0 0 0 0 1 4 11 18 22 19 11 5 2 4 14 28 36 32 20 10 7 10 13 13 13 16 20 23 21 17 14 11 7 4 2 1 1 2 4 4 4 6 9 7 4 2 2 2
0 0 0 0 1 4 9 15 19 20 20 16 9 5 8 20 40 55 54 37 18 7 5 8 8 7 7 8 10 11 9 7 5 3 2 1 1 2 3 5 5 7 11 16 15 11 8 6 5
0 0 0 0 1 7 15 19 18 21 25 22 15 12 17 30 46 61 65 52 30 13 7 6 6 5 5 5 6 5 4 2 1 1 1 0 1 2 3 4 6 9 13 19 22 22 22 18 14
0 0 0 0 2 9 18 25 28 30 31 29 25 26 33 42 50 60 68 62 44 27 18 14 12 10 7 8 8 5 3 3 2 2 1 2 3 4 3 3 5 10 15 22 29 33 31 27 24
0 0 0 1 5 13 22 34 43 46 44 45 47 49 55 60 63 68 72 71 62 50 40 34 31 26 21 18 15 10 7 8 7 4 4 7 9 8 6 4 5 11 18 24 31 35 32 28 27
0 0 0 2 8 19 31 43 53 58 60 67 71 73 73 74 75 77 78 78 76 71 65 58 53 48 41 33 26 20 16 15 12 9 10 13 13 12 9 6 5 9 14 18 21 23 24 22 20
0 0 0 2 9 23 38 49 54 59 66 74 78 78 76 75 76 78 79 81 80 77 75 70 64 57 49 41 34 28 24 21 17 16 17 17 15 13 11 8 5 5 6 7 9 10 11 11 10
0 0 0 1 6 18 34 46 50 53 58 64 68 70 69 68 69 70 72 74 73 70 68 65 59 50 39 32 28 26 24 21 18 17 18 17 14 11 9 6 4 3 2 3 4 4 2 2 2
0 0 0 1 3 10 25 39 43 42 44 48 51 52 51 51 52 54 57 59 59 56 54 50 45 36 25 19 16 16 15 15 14 13 12 11 9 7 5 4 3 3 3 3 3 2 0 0 0
0 0 0 0 1 8 21 33 33 28 27 29 29 28 28 28 31 34 37 39 40 38 35 33 28 21 14 10 7 6 6 6 6 7 6 4 4 4 3 3 3 3 3 3 2 1 0 0 0
0 0 0 0 2 9 20 26 22 16 13 13 11 11 11 12 14 17 20 22 22 20 17 15 13 9 6 4 3 2 1 1 1 2 2 1 1 1 1 2 2 1 1 1 1 0 0 0 0
0 0 0 0 2 7 14 16 13 9 7 5 3 4 5 5 5 7 8 9 9 8 6 5 4 3 1 1 2 1 0 0 0 0 0 0 0 0 0 1 1 0 0 0 0 0 0 0 0
0 0 0 0 2 5 8 8 6 5 4 2 1 2 2 1 1 2 2 2 2 2 1 2 2 1 0 0 1 1 0 0 0 0 0 0 0 0 0 0 0 0 0 0 0 0 0 0 0
0 0 0 0 2 3 4 3 2 1 1 0 0 1 1 0 0 1 1 1 1 1 1 1 1 1 0 0 0 0 0 0 0 0 0 0 0 0 0 0 0 0 0 0 0 0 0 0 0
0 0 0 0 1 1 1 1 0 0 0 0 0 0 0 1 1 1 1 1 2 2 2 1 0 0 0 0 0 0 0 0 0 0 0 0 0 0 0 0 0 0 0 0 0 0 0 0 0
0 0 0 0 0 0 0 0 0 0 0 0 1 1 1 2 3 4 4 3 3 3 2 1 0 0 0 0 0 0 0 0 0 0 0 0 0 0 0 0 0 0 0 0 0 0 0 0 0
0 0 0 0 0 0 0 0 0 0 0 0 1 1 1 2 3 3 3 2 2 2 1 0 0 0 0 0 0 0 0 0 0 0 0 0 0 0 0 0 0 0 0 0 0 0 0 0 0
0 0 0 0 0 0 0 0 0 0 0 0 0 0 0 1 1 1 1 1 0 0 0 0 0 0 0 0 0 0 0 0 0 0 0 0 0 0 0 0 0 0 0 0 0 0 0 0 0
0 0 0 0 0 0 0 0 0 0 0 0 0 0 0 0 0 0 0 0 0 0 0 0 0 0 0 0 0 0 0 0 0 0 0 0 0 0 0 0 0 0 0 0 0 0 0 0 0
0 0 0 0 0 0 0 0 0 0 0 0 0 0 0 0 0 0 0 0 0 0 0 0 0 0 0 0 0 0 0 0 0 0 0 0 0 0 0 0 0 0 0 0 0 0 0 0 0
0 0 0 0 0 0 0 0 0 0 0 0 0 0 0 0 0 0 0 0 0 0 0 0 0 0 0 0 0 0 0 0 0 0 0 0 0 0 0 0 0 0 0 0 0 0 0 0 0
0 0 0 0 0 0 0 0 0 0 0 0 0 0 0 0 0 0 0 0 0 0 0 0 0 0 0 0 0 0 0 0 0 0 0 0 0 0 0 0 0 0 0 0 0 0 0 0 0
0 0 0 0 0 0 0 0 0 0 0 0 0 0 0 0 0 0 0 0 0 0 0 0 0 0 0 0 0 0 0 0 0 0 0 0 0 0 0 0 0 0 0 0 0 0 0 0 0

GEFSSGP_con_prob3kmehi_066.txt.gz
EHI
0 0 0 0 0 0 0 0 0 0 0 0 0 2 4 3 1 0 0 3 10 14 11 17 39 62 73 74 70 66 64 64 63 58 45 33 22 13 6 1 0 0 0 0 0 0 0 0 0
0 0 0 0 0 0 0 0 0 0 0 0 0 1 3 3 1 0 0 5 15 18 13 17 38 61 72 75 70 61 54 50 46 41 33 25 18 10 4 1 0 0 0 0 0 0 0 0 0
0 0 0 0 0 0 0 0 0 0 0 0 0 1 2 2 0 0 2 12 23 23 15 20 39 59 69 73 68 58 47 36 29 23 18 15 10 5 2 1 0 0 0 0 0 0 0 0 0
0 0 0 0 0 0 0 0 1 0 0 0 1 2 3 1 0 3 8 21 32 28 19 25 43 56 63 66 63 56 44 32 21 13 8 6 4 2 1 0 0 0 0 0 0 0 0 0 0
0 0 0 0 0 0 0 0 1 1 0 0 2 3 3 1 1 5 12 23 34 32 24 28 42 52 54 56 56 51 41 30 19 10 4 1 0 0 0 0 0 0 0 0 0 0 0 0 0
0 0 0 0 0 0 0 1 2 2 1 1 3 5 3 1 2 5 9 16 26 31 28 28 35 42 44 46 47 45 38 29 20 12 5 1 0 0 0 0 0 0 0 0 0 0 0 0 0
0 0 0 0 0 0 0 2 3 3 1 1 4 6 4 1 1 3 5 9 17 24 26 26 26 29 32 34 36 35 32 27 19 11 5 1 0 0 0 0 0 0 0 0 0 0 0 0 0
0 0 0 0 0 0 0 1 1 1 1 1 3 4 5 6 6 7 7 8 11 15 17 20 21 20 20 21 24 25 23 20 14 7 3 1 0 0 0 0 0 0 0 0 0 0 0 0 1
0 0 0 0 0 0 1 2 1 2 5 5 8 15 21 20 17 14 10 8 7 7 8 12 16 16 13 13 14 16 15 12 10 6 3 1 1 0 0 0 0 0 0 0 0 0 0 1 2
0 0 0 0 0 1 3 4 3 7 13 15 22 39 48 39 25 17 12 7 4 4 4 5 9 10 9 9 10 10 10 10 10 9 7 6 3 1 0 1 1 1 1 1 0 0 1 2 4
0 0 0 0 0 1 3 6 12 16 19 24 37 55 62 49 30 19 12 7 5 6 5 3 4 5 5 6 6 7 8 9 10 10 9 8 5 2 2 3 3 3 2 2 1 1 2 4 6
0 0 0 0 1 3 8 15 25 29 26 30 47 61 62 51 37 25 17 13 13 12 8 3 2 2 2 3 3 4 5 6 7 6 5 5 3 2 3 4 4 3 2 2 2 2 2 3 5
0 0 0 1 4 12 25 33 36 37 34 39 53 61 59 52 43 35 29 28 27 22 13 5 3 3 2 2 1 2 3 4 4 3 2 1 2 2 3 3 2 2 1 1 1 2 1 1 1
0 0 0 1 5 18 36 45 41 34 36 45 52 53 51 47 44 42 41 39 36 28 17 10 8 6 5 4 3 2 2 3 3 2 1 1 3 2 2 2 1 0 0 0 0 0 0 0 0
0 0 0 1 3 12 29 39 34 25 31 43 45 43 41 39 38 38 36 34 29 22 16 15 13 9 7 6 4 2 1 1 1 1 1 2 3 3 2 1 1 0 0 0 0 0 1 1 1
0 0 0 0 1 5 15 23 19 16 26 35 35 31 29 28 28 26 22 20 17 13 13 14 13 9 6 4 2 1 1 0 0 0 1 1 2 2 2 2 2 1 1 1 0 1 2 2 2
0 0 0 0 0 3 9 13 10 12 20 24 22 18 16 16 16 14 11 9 7 7 7 7 6 4 2 1 0 0 0 0 0 0 0 0 0 1 2 3 3 2 2 1 0 1 2 3 3
0 0 0 0 0 3 10 12 10 10 12 12 11 8 7 6 5 4 4 3 2 2 2 2 1 0 0 0 0 0 0 0 0 0 0 0 0 0 1 2 2 1 1 1 0 0 1 1 2
0 0 0 0 1 4 10 12 9 7 4 3 3 2 2 1 1 0 1 1 0 0 0 0 0 0 0 0 0 0 0 0 0 0 0 0 0 0 0 1 1 0 0 0 0 0 0 0 1
0 0 1 2 2 5 9 9 6 3 1 0 0 0 0 0 0 0 0 0 0 0 0 0 0 0 0 0 0 0 0 0 0 0 0 0 0 0 0 0 0 0 0 0 0 0 0 0 0
0 0 1 2 3 4 6 6 4 2 1 0 0 0 0 0 0 0 0 0 0 0 0 0 0 0 0 0 0 0 0 0 0 0 0 0 0 0 0 0 0 0 0 0 0 0 0 0 0
0 0 0 1 1 2 2 2 1 1 0 0 0 0 0 0 0 0 0 0 0 0 0 0 0 0 0 0 0 0 0 0 0 0 0 0 0 0 0 0 0 0 0 0 0 0 0 0 0
0 0 0 0 0 0 0 0 0 0 0 0 0 0 0 0 0 0 0 0 0 0 0 0 0 0 0 0 0 0 0 0 0 0 0 0 0 0 0 0 0 0 0 0 0 0 0 0 0
0 0 0 0 0 0 0 0 0 0 0 0 0 0 0 0 0 0 0 0 0 0 0 0 0 0 0 0 0 0 0 0 0 0 0 0 0 0 0 0 0 0 0 0 0 0 0 0 0
0 0 0 0 0 0 0 0 0 0 0 0 0 0 0 0 0 0 0 0 0 0 0 0 0 0 0 0 0 0 0 0 0 0 0 0 0 0 0 0 0 0 0 0 0 0 0 0 0
0 0 0 0 0 0 0 0 0 0 0 0 0 0 0 0 0 0 0 0 0 0 0 0 0 0 0 0 0 0 0 0 0 0 0 0 0 0 0 0 0 0 0 0 0 0 0 0 0
0 0 0 0 0 0 0 0 0 0 0 0 0 0 0 0 0 0 0 0 0 0 0 0 0 0 0 0 0 0 0 0 0 0 0 0 0 0 0 0 0 0 0 0 0 0 0 0 0
0 0 0 0 0 0 0 0 0 0 0 0 0 0 0 0 0 0 0 0 0 0 0 0 0 0 0 0 0 0 0 0 0 0 0 0 0 0 0 0 0 0 0 0 0 0 0 0 0
0 0 0 0 0 0 0 0 0 0 0 0 0 0 0 0 0 0 0 0 0 0 0 0 0 0 0 0 0 0 0 0 0 0 0 0 0 0 0 0 0 0 0 0 0 0 0 0 0
0 0 0 0 0 0 0 0 0 0 0 0 0 0 0 0 0 0 0 0 0 0 0 0 0 0 0 0 0 0 0 0 0 0 0 0 0 0 0 0 0 0 0 0 0 0 0 0 0

GEFSSGP_con_prob3kmehi_072.txt.gz
EHI
0 0 0 0 0 0 0 0 0 0 0 0 0 0 0 0 0 1 3 2 3 10 12 7 5 6 7 15 31 45 55 62 63 59 49 31 15 7 4 1 0 0 0 0 0 0 0 0 0
0 0 0 0 0 0 0 0 0 0 0 0 0 0 0 0 0 0 1 1 2 5 8 7 7 8 9 16 29 43 53 58 58 53 42 27 13 7 4 1 0 0 0 0 0 0 0 0 0
0 0 0 0 0 0 0 0 0 0 0 0 0 1 2 3 1 0 0 0 0 1 5 9 10 9 10 16 27 37 45 49 46 39 29 18 10 5 2 0 0 0 0 0 0 0 0 0 0
0 0 0 0 0 0 0 0 0 0 0 1 1 3 7 8 4 0 0 0 0 0 3 8 9 7 9 16 24 30 34 35 32 25 17 11 7 3 1 0 0 0 0 0 0 0 0 0 0
0 0 0 0 0 0 0 1 1 0 1 2 2 5 13 17 10 2 0 0 0 0 1 4 6 5 6 11 16 19 20 21 19 16 12 8 5 2 0 0 0 0 0 0 0 0 0 0 0
0 0 0 0 0 0 1 3 3 2 2 3 3 5 15 23 18 6 0 0 0 0 0 2 3 3 3 5 8 10 10 11 11 10 8 6 4 1 0 0 0 0 0 0 0 0 0 0 0
0 0 0 0 0 1 2 5 7 7 6 5 4 5 14 25 23 10 2 0 0 0 0 0 1 1 1 3 6 7 7 8 8 6 4 3 1 0 0 0 1 1 0 0 0 0 0 0 0
0 0 0 0 0 1 2 5 8 10 10 9 8 11 20 29 26 14 6 3 2 1 0 0 0 0 0 2 6 7 7 7 7 5 2 1 0 0 0 1 2 2 1 0 0 0 0 0 0
0 0 0 0 0 1 2 5 7 8 11 13 18 25 35 37 29 17 11 8 6 3 1 0 0 0 1 3 5 7 7 7 6 5 4 3 1 0 1 3 4 2 1 1 1 1 1 0 0
0 0 0 0 0 0 2 6 7 7 12 18 26 36 41 37 26 17 15 13 10 4 1 0 0 1 1 3 6 7 7 7 6 6 7 6 5 3 4 7 6 2 1 2 5 6 3 1 1
0 0 0 0 0 0 1 6 12 15 19 25 30 34 36 31 22 16 15 15 12 5 0 0 0 1 2 4 7 8 9 8 6 6 6 8 11 10 9 10 9 5 5 8 14 15 9 5 6
0 0 0 0 0 0 1 8 20 29 33 34 34 33 32 30 25 20 18 18 16 8 2 0 1 2 5 9 10 11 11 9 8 9 10 12 16 18 17 18 16 14 16 18 21 22 16 12 11
0 0 0 0 0 0 3 12 25 37 41 42 41 37 36 37 34 30 25 23 20 14 8 6 6 8 11 15 16 14 15 14 12 14 15 17 21 22 22 24 22 20 22 24 22 20 19 16 13
0 0 0 0 0 0 3 12 25 35 40 43 43 41 44 45 43 38 33 27 24 22 20 18 16 14 16 19 19 17 16 16 14 12 12 17 21 21 22 22 20 19 21 22 18 15 15 15 13
0 0 0 0 0 0 2 10 22 30 35 38 39 41 46 47 42 38 33 27 26 28 28 26 21 19 20 21 19 15 11 11 10 6 6 9 13 16 17 17 15 14 16 16 14 11 12 12 11
0 0 0 0 0 0 1 7 17 24 27 31 33 35 39 39 36 33 28 23 24 27 29 26 22 22 23 22 18 11 6 5 4 3 2 3 5 8 10 10 10 10 10 10 9 8 8 8 7
0 0 0 0 0 0 1 5 11 17 21 24 25 26 26 26 27 27 24 20 18 22 25 24 21 20 20 16 10 6 3 2 1 0 0 1 2 2 3 4 5 5 5 5 6 5 5 5 5
0 0 0 0 0 0 1 3 9 15 19 20 21 20 16 14 17 20 18 15 13 16 18 17 15 14 11 6 3 1 1 1 0 0 0 0 0 1 1 1 2 2 2 3 3 3 4 4 3
0 0 0 0 0 1 1 2 7 14 17 17 17 16 12 10 11 12 10 8 7 7 8 6 6 7 5 2 1 0 0 0 0 0 0 0 0 0 0 0 1 1 1 1 1 2 3 3 3
0 0 0 0 0 1 2 2 5 8 11 12 12 11 8 7 8 9 6 3 2 2 1 1 2 3 3 2 1 0 0 0 0 0 0 0 0 0 0 0 0 0 0 0 0 1 1 1 1
0 0 0 0 0 1 2 2 2 3 4 6 7 5 3 2 4 6 5 2 1 0 0 1 3 4 5 4 2 0 0 0 0 0 0 0 0 0 0 0 0 0 0 0 0 0 0 0 0
0 0 0 0 0 0 0 0 1 1 2 3 4 3 1 0 1 3 3 2 0 0 1 5 8 11 13 11 7 4 2 1 0 0 0 0 0 0 0 0 0 0 0 0 0 0 0 0 0
0 0 0 0 0 0 0 0 0 1 1 1 2 2 1 0 0 1 1 1 1 1 3 8 16 23 23 19 14 9 5 2 0 0 0 0 0 0 0 0 0 0 0 0 0 0 0 0 0
0 0 0 0 0 0 0 0 0 0 0 0 1 1 1 0 0 0 1 1 2 2 3 8 17 25 26 21 15 11 6 2 0 0 0 0 0 0 0 0 0 0 0 0 0 0 0 0 0
0 0 0 0 0 0 0 0 0 0 0 0 0 0 0 0 0 0 0 1 2 3 4 6 11 17 17 13 9 6 4 2 0 0 0 0 0 0 0 0 0 0 0 0 0 0 0 0 0
0 0 0 0 0 0 0 0 0 0 0 0 0 0 0 0 0 0 0 1 2 3 4 5 6 7 6 4 3 2 1 1 0 0 0 0 0 0 0 0 0 0 0 0 0 0 0 0 0
0 0 0 0 0 0 0 0 0 0 0 0 0 0 0 0 0 0 0 1 2 3 4 3 3 2 1 0 0 0 0 0 0 0 0 0 0 0 0 0 0 0 0 0 0 0 0 0 0
0 0 0 0 0 0 0 0 0 0 0 0 0 0 0 0 0 0 0 0 2 3 4 3 2 1 0 0 0 0 0 0 0 0 0 0 0 0 0 0 0 0 0 0 0 0 0 0 0
0 0 0 0 0 0 0 0 0 0 0 0 0 0 0 0 0 0 0 1 2 3 3 2 1 1 0 0 0 0 0 0 0 0 0 0 0 0 0 0 0 0 0 0 0 0 0 0 0
0 0 0 0 0 0 0 0 0 0 0 0 0 0 0 0 0 0 1 2 2 2 1 1 0 0 0 0 0 0 0 0 0 0 0 0 0 0 0 0 0 0 0 0 0 0 0 0 0

GEFSSGP_con_prob3kmehi_078.txt.gz
EHI
8 8 8 4 1 1 1 0 0 0 0 1 3 11 20 21 17 17 30 54 65 53 43 44 39 23 8 1 1 1 2 2 2 1 1 1 0 0 0 0 0 0 0 0 0 0 0 0 0
4 6 6 3 1 1 0 0 0 0 0 1 5 10 13 13 13 19 35 53 52 38 33 39 37 24 10 4 3 4 5 5 4 3 1 1 0 0 0 0 0 0 0 0 0 0 0 0 0
1 2 2 1 1 1 0 0 1 0 0 2 7 10 7 5 10 19 34 46 41 29 29 37 37 26 14 8 7 9 10 10 9 7 4 2 0 0 0 0 0 0 0 0 0 0 0 0 0
0 0 0 0 1 1 0 0 1 1 0 5 16 19 10 6 9 15 25 37 37 31 30 33 35 28 16 11 10 13 15 13 12 11 6 2 1 0 0 0 0 0 0 0 0 0 0 0 0
0 0 0 0 0 0 0 0 1 1 2 11 28 31 18 8 8 10 15 25 32 33 29 27 28 24 15 11 10 12 14 13 12 10 6 2 1 0 0 0 0 0 0 0 0 0 0 0 0
0 0 0 0 0 0 0 1 2 2 4 14 30 34 21 9 7 7 8 16 32 39 29 21 20 17 11 8 6 6 8 9 8 6 3 1 0 0 0 0 0 0 0 0 1 0 0 0 0
0 0 0 0 0 0 1 2 3 4 7 13 23 29 22 11 8 8 9 19 38 46 30 16 13 10 7 5 3 3 5 5 5 4 2 0 0 0 0 0 0 0 0 1 3 2 0 0 0
0 0 0 0 0 1 2 4 6 9 15 20 27 35 29 18 11 11 14 25 43 46 29 16 13 9 4 4 5 5 5 5 3 2 1 0 0 1 1 3 3 2 0 2 3 2 1 0 1
0 0 0 0 0 1 3 5 7 13 23 34 45 48 37 24 17 15 18 30 42 42 30 23 21 12 5 9 12 9 6 5 4 3 3 1 1 3 5 9 11 8 3 3 3 2 2 1 1
0 0 0 0 0 1 2 4 7 15 27 42 53 50 36 23 17 16 23 36 44 40 31 33 34 22 13 20 23 16 14 15 13 13 13 9 6 8 14 20 21 14 7 5 5 4 3 2 1
0 0 0 0 0 0 0 3 8 19 30 37 41 37 26 17 13 16 28 44 48 38 32 41 45 35 31 37 36 29 30 34 34 33 31 23 17 18 26 31 28 20 12 10 12 10 6 3 3
0 0 0 0 1 1 2 7 15 25 30 31 28 25 21 18 19 26 39 52 51 40 37 47 55 51 50 51 47 43 44 49 51 50 44 36 29 30 35 37 35 30 22 19 20 19 12 8 10
0 0 0 0 0 1 6 13 21 26 28 28 26 25 28 33 38 45 55 61 56 47 48 58 66 64 59 55 50 46 46 47 48 45 42 38 34 34 36 36 35 31 25 23 23 21 15 13 15
0 0 0 0 0 2 8 16 22 24 25 27 29 33 42 52 57 61 67 69 63 60 63 68 69 65 58 50 44 38 34 33 33 32 31 30 31 30 29 26 23 21 20 21 20 16 12 11 13
0 0 0 0 0 2 7 15 21 22 24 28 34 44 55 64 70 73 74 74 72 72 74 70 63 59 56 47 37 28 23 22 24 24 23 23 23 21 18 16 15 14 14 15 15 12 9 8 8
0 0 0 0 0 1 6 14 18 18 22 29 37 46 56 65 70 74 75 77 79 79 77 69 57 54 53 45 32 24 21 19 19 19 19 18 15 12 12 12 12 11 11 10 9 9 8 7 6
0 0 0 0 0 0 4 13 17 15 18 28 35 41 49 56 60 64 69 75 77 76 73 67 58 50 44 35 24 18 17 15 13 13 15 12 7 6 7 9 9 8 8 8 6 6 7 6 7
0 0 0 0 0 0 4 11 14 13 16 26 35 39 43 46 49 52 59 66 68 68 68 65 57 45 32 23 17 14 13 11 9 10 10 8 4 2 3 5 6 5 5 6 5 4 4 5 6
0 0 0 0 0 0 3 7 9 10 15 26 34 38 39 41 42 43 47 51 54 57 60 58 49 33 23 18 15 12 11 9 8 9 9 7 5 3 2 3 4 2 2 3 2 2 2 3 3
0 0 0 0 0 1 3 4 6 9 14 20 27 30 31 34 36 35 32 32 35 41 45 42 37 26 17 15 14 12 11 9 8 11 12 8 6 5 3 3 3 2 1 1 1 1 1 1 1
0 0 0 0 1 2 2 5 8 11 12 13 16 19 21 24 29 26 19 17 20 26 29 31 37 33 21 16 14 12 11 8 9 14 16 10 6 5 4 4 3 3 2 1 0 0 0 0 0
0 0 0 0 1 1 1 4 9 10 10 11 12 13 15 17 19 17 13 14 18 21 25 39 53 50 36 26 19 15 12 9 10 16 18 14 8 5 4 3 3 3 3 1 0 0 0 0 0
0 0 0 0 0 0 0 3 5 6 8 11 14 14 14 13 13 12 13 18 22 23 32 52 68 65 50 34 25 18 12 9 10 13 14 13 10 5 3 3 3 3 2 1 0 0 0 0 0
0 0 0 0 0 0 0 1 3 3 4 8 13 15 13 10 9 9 12 19 24 28 38 57 73 72 55 37 25 19 14 10 8 7 7 8 7 5 3 2 4 4 2 0 0 0 0 0 0
0 0 0 0 0 0 0 1 2 1 1 4 8 11 10 8 7 9 11 17 25 33 43 58 71 69 52 33 22 17 13 8 5 3 2 3 3 2 2 2 3 3 2 0 0 0 0 0 0
0 0 0 0 0 0 0 0 0 0 0 1 3 5 5 5 6 7 9 14 22 31 42 55 62 56 39 25 18 15 10 6 3 2 1 0 0 0 0 1 1 1 1 0 0 0 0 0 0
0 0 0 0 0 0 0 0 0 0 0 0 0 1 1 1 2 4 6 10 17 27 36 43 44 38 26 16 12 10 8 5 2 1 0 0 0 0 0 0 0 0 0 0 0 0 0 0 0
0 0 0 0 0 0 0 0 0 0 0 0 0 0 0 0 0 1 3 8 16 25 30 29 28 24 18 11 7 6 6 6 4 1 0 0 0 0 0 0 0 0 0 0 0 0 0 0 0
0 0 0 0 0 0 0 0 0 1 0 0 0 0 0 0 0 1 5 12 18 22 23 21 18 15 11 7 5 5 5 4 3 1 0 0 0 0 0 0 0 0 0 0 0 0 0 0 0
0 0 0 0 0 0 0 0 0 1 0 0 0 0 0 0 0 1 6 14 17 17 17 16 13 10 7 5 4 4 4 2 1 0 0 0 0 0 0 0 0 0 0 0 0 0 0 0 0

GEFSSGP_con_prob3kmehi_084.txt.gz
EHI
15 7 1 0 0 0 0 0 0 0 2 5 8 11 14 13 10 6 8 32 66 66 41 35 45 49 40 26 14 9 7 6 5 3 1 0 0 0 0 0 0 0 0 0 0 0 0 0 0
7 3 0 0 0 0 0 0 0 0 2 5 8 12 16 18 16 11 13 39 70 70 48 40 47 48 39 26 18 12 8 6 4 3 1 0 0 0 0 0 0 0 0 0 0 0 0 0 0
1 0 0 0 0 0 0 0 0 2 4 7 9 11 13 14 14 11 22 50 73 72 55 49 54 51 40 30 23 17 11 7 5 3 2 1 1 0 0 0 0 0 0 0 0 0 0 0 0
0 0 0 0 0 2 3 2 1 4 7 10 12 13 12 12 16 21 35 58 72 68 57 55 61 59 48 37 28 22 16 10 7 5 3 2 2 1 0 0 0 0 0 0 0 0 0 0 0
0 0 0 0 0 3 6 4 4 9 12 15 20 22 18 20 32 36 39 54 66 63 54 55 63 65 57 44 34 26 19 14 10 6 4 3 3 2 1 0 0 0 0 0 0 0 0 0 0
0 0 0 0 0 2 4 5 10 16 20 21 26 27 21 24 33 33 32 42 54 56 51 50 55 59 57 48 37 28 22 17 11 7 5 4 3 2 1 0 0 0 0 0 0 0 0 0 0
0 0 0 0 0 0 1 4 12 21 26 25 24 23 19 19 22 23 24 31 39 44 44 42 40 43 46 43 36 29 21 15 10 8 5 3 1 1 1 1 1 0 0 0 0 0 0 0 0
0 0 0 0 0 0 1 4 9 19 25 23 18 18 18 18 24 28 27 26 26 29 32 30 26 25 26 26 25 21 14 9 7 6 4 1 0 1 2 2 1 1 1 0 0 0 0 0 0
0 0 0 0 0 1 3 5 8 16 23 22 18 20 22 26 35 41 36 26 17 15 18 18 15 12 10 9 9 8 5 3 3 3 2 1 0 1 2 2 1 1 1 0 0 0 1 2 2
0 0 0 0 0 1 3 6 8 15 21 23 23 24 25 32 42 46 38 24 12 8 8 9 7 4 3 2 2 1 1 1 2 2 1 1 1 1 2 2 2 1 0 0 0 0 2 3 3
0 0 0 0 0 1 2 4 7 12 16 19 23 24 25 31 37 39 32 22 12 7 7 6 3 2 3 3 3 2 1 2 3 3 3 2 2 2 3 3 2 1 0 0 0 0 1 2 3
0 0 0 1 1 0 1 4 7 9 10 13 17 20 24 27 28 28 28 25 20 17 16 13 10 8 9 10 8 6 4 4 4 4 3 2 1 1 1 1 1 1 0 0 0 0 0 1 1
0 0 1 2 1 1 3 7 9 8 8 10 13 17 22 23 22 23 28 33 37 38 35 30 26 23 21 17 13 10 7 4 3 2 1 0 0 0 0 0 0 0 0 1 0 0 0 0 0
0 0 1 1 1 1 4 8 10 8 7 8 11 17 21 20 22 26 33 43 52 54 50 43 38 33 28 21 14 10 6 2 1 0 0 0 0 0 0 1 0 0 0 0 0 0 0 0 0
0 0 0 1 1 1 4 8 9 9 9 10 12 17 20 21 25 32 40 48 54 55 51 43 35 29 25 19 12 8 4 1 0 0 0 1 0 0 0 0 0 0 0 0 0 0 0 0 0
0 0 0 0 1 1 2 5 8 10 12 12 12 15 19 22 29 37 43 49 51 48 44 37 29 23 19 14 10 7 5 2 0 0 0 0 0 0 0 0 0 0 0 0 0 0 0 0 0
0 0 0 0 0 0 1 3 6 9 13 14 13 14 18 22 30 37 42 46 46 40 36 31 23 17 13 10 7 6 5 2 0 0 0 0 0 0 0 0 0 0 0 0 0 0 0 0 0
0 0 0 0 0 0 1 2 5 8 13 15 16 17 19 20 24 30 36 41 40 33 28 24 16 9 6 4 3 3 2 1 0 0 0 0 0 0 0 0 0 0 0 0 0 0 0 0 0
0 0 0 0 0 0 1 2 4 8 13 16 16 16 17 16 16 22 27 31 32 27 21 16 10 5 2 1 0 1 1 0 0 0 0 0 0 0 0 0 0 0 0 0 0 0 0 0 0
0 0 0 0 0 0 1 2 2 5 11 13 13 11 11 10 12 16 19 21 22 19 13 8 6 3 1 0 0 0 0 0 0 0 0 0 0 0 0 0 0 0 0 0 0 0 0 0 0
0 0 0 0 0 0 0 1 1 3 6 8 7 7 7 7 10 13 15 15 13 11 7 5 4 3 1 0 0 0 0 0 0 0 0 0 0 0 0 0 0 0 0 0 0 0 0 0 0
0 0 0 0 0 0 0 0 0 1 2 3 3 4 6 6 8 12 14 13 10 8 6 4 3 2 1 0 0 0 0 0 0 0 0 0 0 0 0 0 0 0 0 0 0 0 0 0 0
0 0 0 0 0 0 0 0 1 2 2 1 1 2 4 6 8 11 14 14 11 7 5 3 3 2 1 1 1 1 0 0 0 0 0 0 0 0 0 0 0 0 0 0 0 0 0 0 0
0 0 0 0 0 0 0 0 1 2 2 2 2 3 5 8 10 11 13 14 13 9 6 4 4 4 3 3 2 1 0 0 0 0 0 0 0 0 0 0 0 0 0 0 0 0 0 0 0
0 0 0 0 0 0 0 0 0 1 1 3 3 4 7 11 11 10 11 12 12 10 9 9 10 11 8 5 2 1 0 0 0 0 0 0 0 0 0 0 0 0 0 0 0 0 0 0 0
0 0 0 0 0 0 0 0 0 0 0 2 2 4 9 13 11 8 8 9 11 11 13 17 19 18 12 6 3 1 0 0 0 0 0 0 0 0 0 0 0 0 0 0 0 0 0 0 0
0 0 0 0 0 0 0 0 0 0 0 0 1 3 8 11 9 7 6 9 11 13 17 21 22 17 12 7 4 1 0 0 0 0 0 0 0 0 0 0 0 0 0 0 0 0 0 0 0
0 0 0 0 0 0 0 0 0 0 0 0 0 2 6 8 8 7 7 9 11 14 17 18 16 12 8 6 4 2 1 0 0 0 0 0 0 0 0 0 0 0 0 0 0 0 0 0 0
0 0 0 0 0 0 0 0 0 0 0 0 0 1 3 5 6 7 7 8 10 13 13 12 10 7 5 4 3 2 1 0 0 0 0 0 0 0 0 0 0 0 0 0 0 0 0 0 0
0 0 0 0 0 0 0 0 0 0 0 0 0 0 1 2 4 5 6 6 9 11 10 8 6 4 3 3 2 1 0 0 0 0 0 0 0 0 0 0 0 0 0 0 0 0 0 0 0

GEFSSGP_con_prob3kmehi_090.txt.gz
EHI
0 0 0 0 0 0 0 0 0 1 2 1 0 0 0 0 0 0 1 7 18 18 12 16 30 45 54 56 54 51 44 34 25 20 14 8 5 3 1 0 0 0 0 0 0 1 1 1 0
0 0 0 0 0 0 0 1 2 3 3 2 1 0 0 0 0 1 3 10 20 23 17 20 33 46 54 56 54 49 39 27 20 15 10 7 6 4 1 0 0 0 0 0 1 2 2 2 1
0 0 0 0 0 0 0 2 4 4 3 2 1 1 0 0 1 4 9 17 26 28 24 27 39 50 54 55 52 45 32 20 13 9 6 6 6 4 1 0 0 0 0 0 1 2 3 2 1
0 0 0 0 0 0 0 2 4 4 3 2 2 1 0 1 3 10 20 28 34 33 28 32 44 51 51 50 47 38 28 18 12 7 5 6 6 3 1 0 0 0 0 0 0 1 1 1 1
0 0 0 0 0 0 0 0 2 2 2 2 2 1 1 4 11 22 31 36 39 38 34 37 45 48 47 45 42 35 26 17 10 6 5 6 4 2 0 0 0 0 0 0 1 1 1 0 0
0 0 0 0 0 0 0 0 1 3 3 4 5 5 5 8 20 32 38 39 41 43 42 42 43 43 43 43 40 34 26 16 10 7 6 5 3 1 0 0 0 1 1 1 1 1 1 0 0
0 0 0 0 0 0 0 0 1 4 6 6 8 10 11 15 25 37 43 43 44 47 48 45 41 38 39 39 36 30 23 16 9 6 4 3 2 1 0 0 0 2 2 1 0 0 0 0 0
0 0 0 0 0 0 0 0 1 3 5 7 7 10 15 23 34 43 47 45 41 40 43 43 40 37 34 31 27 23 19 13 7 3 1 1 1 0 0 0 0 1 1 1 0 0 0 0 1
0 0 0 0 0 0 0 0 0 2 5 9 10 12 21 34 43 46 43 35 28 26 30 34 34 34 30 25 21 18 14 8 3 0 0 0 0 0 0 0 0 0 0 0 0 0 0 0 1
0 0 0 0 0 1 1 1 1 2 7 13 18 23 31 41 43 37 29 21 14 13 17 21 24 27 26 22 17 13 9 5 2 0 0 0 0 0 0 0 0 0 0 0 0 0 0 0 1
0 0 0 0 1 3 3 3 3 4 7 14 24 33 39 40 35 25 16 11 7 6 8 12 16 18 18 15 11 8 7 5 3 1 0 0 0 0 0 0 0 0 0 0 0 0 0 0 0
0 0 0 0 2 5 5 4 4 4 6 13 25 35 38 35 28 18 10 6 4 4 5 7 9 9 8 7 6 5 5 4 2 1 0 0 0 0 0 0 0 0 0 0 0 0 0 0 0
0 0 0 0 2 4 4 3 2 3 6 14 25 32 34 29 23 15 8 5 4 4 4 3 3 3 2 2 4 3 2 1 1 0 0 0 1 0 0 0 0 0 0 0 0 0 0 0 0
0 0 1 0 1 3 3 2 2 3 7 13 20 25 26 23 19 15 10 5 4 4 2 1 1 2 1 2 2 1 0 0 0 0 0 0 0 0 0 0 0 0 0 0 0 0 0 0 0
0 0 0 0 1 2 2 2 2 4 8 12 14 17 17 16 15 15 11 6 4 3 2 2 3 3 2 2 1 0 0 0 0 0 0 0 0 0 0 0 0 0 0 0 0 0 0 0 0
0 0 0 0 0 1 1 0 2 7 10 11 11 10 10 9 8 10 9 6 3 3 3 3 3 3 3 3 2 1 0 0 0 0 0 0 0 0 0 0 0 0 0 0 0 0 0 0 0
0 0 0 0 0 0 0 0 3 7 10 10 8 8 8 6 4 5 7 7 5 4 5 4 4 3 3 2 2 1 0 0 0 0 0 0 0 0 0 0 0 0 0 0 0 0 0 0 0
0 0 0 0 0 0 0 0 2 6 9 8 7 8 8 7 5 5 7 9 8 6 6 5 3 2 1 1 1 0 0 0 0 0 0 0 0 0 0 0 0 0 0 0 0 0 0 0 0
0 0 0 0 0 0 0 0 1 5 7 7 7 7 8 6 5 5 6 8 9 7 5 3 2 1 0 0 0 0 0 0 0 0 0 0 0 0 0 0 0 0 0 0 0 0 0 0 0
0 0 0 0 0 0 0 0 1 3 5 5 4 4 5 5 5 5 6 7 8 6 2 1 0 0 0 0 0 0 0 0 0 0 0 0 0 0 0 0 0 0 0 0 0 0 0 0 0
0 0 0 0 0 0 0 0 0 1 1 2 1 1 3 5 5 6 6 7 6 3 1 1 1 0 0 0 0 0 0 0 0 0 0 0 0 0 0 0 0 0 0 0 0 0 0 0 0
0 0 0 0 0 0 0 0 0 0 0 0 0 0 2 4 6 6 6 6 4 2 1 1 1 0 0 0 0 0 0 0 0 0 0 0 0 0 0 0 0 0 0 0 0 0 0 0 0
0 0 0 0 0 0 0 0 0 0 0 0 0 0 2 5 6 6 6 5 3 2 2 1 1 0 0 0 0 0 0 0 0 0 0 0 0 0 0 0 0 0 0 0 0 0 0 0 0
0 0 0 0 0 0 0 0 0 0 0 0 0 0 2 5 6 5 5 4 3 1 1 1 1 1 0 0 0 0 0 0 0 0 0 0 0 0 0 0 0 0 0 0 0 0 0 0 0
0 0 0 0 0 0 0 0 0 0 0 0 0 0 2 4 5 4 3 3 3 2 2 3 3 2 1 0 0 0 0 0 0 0 0 0 0 0 0 0 0 0 0 0 0 0 0 0 0
0 0 0 0 0 0 0 0 0 0 0 0 0 0 2 3 3 3 3 3 4 4 3 4 4 2 1 0 0 0 0 0 0 0 0 0 0 0 0 0 0 0 0 0 0 0 0 0 0
0 0 0 0 0 0 0 0 0 0 0 0 0 0 1 2 2 2 2 3 4 5 4 3 3 2 0 0 0 0 0 0 0 0 0 0 0 0 0 0 0 0 0 0 0 0 0 0 0
0 0 0 0 0 0 0 0 0 0 0 0 0 0 1 1 0 1 1 1 2 4 4 3 2 1 0 0 1 2 1 0 0 0 0 0 0 0 0 0 0 0 0 0 0 0 0 0 0
0 0 0 0 0 0 0 0 0 0 0 0 0 0 0 0 0 0 0 1 2 4 4 3 1 1 0 0 2 2 2 0 0 0 0 0 0 0 0 0 0 0 0 0 0 0 0 0 0
0 0 0 0 0 0 0 0 0 0 0 0 0 0 0 0 0 0 1 2 3 5 5 3 1 0 0 0 1 2 1 0 0 0 0 0 0 0 0 0 0 0 0 0 0 0 0 0 0